GFSMA_250_rhum_033.txt.gz
RH
48 64 67 63 53 41 31 23 48 56 45 33 25 24 24 25 26 23 23 22 18 17 22 30 70 93 100 98 97 100 100 100 100 100 100 100 99 99 95 83 79 74 65
62 60 58 60 56 34 23 42 55 56 46 36 26 26 26 26 28 32 32 30 25 21 22 22 27 60 83 73 83 92 100 100 100 100 100 100 99 95 99 97 95 99 80
63 62 68 60 52 30 40 69 67 66 55 49 40 35 36 38 37 31 28 33 41 39 27 22 25 26 37 63 70 82 79 92 100 100 96 95 96 100 99 95 100 94 82
62 69 65 55 22 34 56 70 68 61 62 58 54 47 44 44 43 42 42 39 34 32 38 46 46 34 27 29 35 41 53 64 80 75 71 78 81 75 71 68 69 75 71
75 75 63 21 28 62 74 66 68 73 53 42 38 37 32 29 26 23 24 30 40 50 49 43 40 41 47 52 53 47 43 43 42 41 41 45 47 44 45 50 53 57 63
83 62 19 19 33 53 51 61 63 40 27 21 19 18 16 15 15 15 14 15 16 18 21 26 34 40 47 48 44 44 51 58 61 62 62 59 58 64 66 67 69 75 84
47 17 21 24 24 27 30 27 22 18 20 22 24 21 20 20 18 18 18 18 17 16 16 15 15 16 18 19 23 28 34 40 44 45 46 48 50 50 51 51 53 56 62
24 24 22 23 20 20 20 22 22 22 20 20 19 20 21 18 17 17 17 16 15 16 16 16 16 16 16 17 18 18 19 20 24 26 28 32 38 42 43 46 46 47 52
25 21 20 20 21 20 23 22 24 22 20 19 20 20 21 20 22 25 22 18 16 15 15 16 16 16 15 15 15 16 17 17 17 17 18 20 22 26 32 40 48 51 49
22 22 22 24 23 24 25 23 22 22 23 21 20 18 19 19 20 23 24 22 22 22 22 22 21 20 18 17 17 17 18 17 16 16 15 14 14 15 16 18 21 24 25
25 25 25 26 29 26 22 22 21 23 23 21 19 18 18 16 14 13 15 16 18 19 20 23 24 24 23 22 22 22 22 23 23 23 23 22 22 22 22 22 22 22 24
28 27 27 29 29 24 23 23 22 20 20 20 19 19 18 18 18 15 12 10 12 18 20 23 25 24 25 25 25 27 27 26 27 28 27 26 27 29 30 31 32 33 34
31 29 30 30 29 25 24 24 23 24 24 21 19 18 17 16 14 12 11 13 13 16 20 26 31 32 36 36 34 34 34 34 35 36 37 36 34 33 33 33 33 33 32
31 30 35 33 27 26 28 26 28 28 22 19 18 17 17 15 14 13 13 13 17 23 30 35 39 38 35 32 32 34 35 33 29 27 24 22 21 20 19 19 18 19 19
37 37 35 31 30 31 29 31 31 23 21 21 21 18 16 15 16 18 20 20 23 29 37 40 34 34 28 27 26 24 22 20 20 20 19 17 15 14 13 13 12 13 13
41 39 33 34 32 31 33 31 25 22 24 23 18 17 17 21 26 28 30 34 33 28 24 32 30 24 20 19 16 14 12 12 12 10 10 9 9 9 8 8 8 9 8
42 40 38 34 32 33 32 27 23 25 24 20 18 20 28 30 31 37 36 33 29 25 19 22 22 25 22 17 12 9 7 5 4 4 4 4 4 4 4 4 4 5 5
46 41 38 34 35 34 29 25 26 26 20 20 27 30 33 39 38 34 32 32 31 26 18 17 18 12 9 6 5 4 4 3 3 3 3 3 3 3 3 3 3 3 3
45 40 38 37 33 30 27 28 26 21 24 29 28 36 40 33 34 40 42 31 24 23 20 11 6 5 5 4 4 3 2 2 2 2 2 2 2 2 3 3 2 2 2
42 41 36 32 30 28 29 26 21 24 31 29 40 36 33 42 46 36 28 26 21 14 7 5 5 4 3 3 2 2 3 2 2 2 2 2 2 2 2 2 2 2 2
44 38 33 30 29 32 25 22 31 34 34 43 34 40 53 46 35 30 24 17 10 6 5 4 4 3 3 3 3 2 2 2 2 2 2 2 2 2 2 3 2 2 2
38 36 31 33 32 23 26 34 32 39 43 35 45 57 47 40 32 25 17 9 6 4 3 3 3 3 3 3 2 2 2 2 2 2 2 2 2 2 2 2 2 2 2
36 31 37 29 24 30 35 31 42 38 39 53 54 47 42 31 23 13 8 7 6 4 3 3 4 3 3 3 2 2 2 2 2 2 2 1 2 2 2 2 2 2 2
36 37 26 25 31 33 35 44 36 44 61 59 52 42 31 20 10 8 7 6 5 4 4 4 3 3 3 2 2 2 2 2 2 2 2 2 2 2 3 3 2 2 2
30 25 27 34 30 38 41 36 49 62 63 57 46 32 16 9 9 8 6 5 5 4 4 3 3 2 2 3 3 2 2 3 2 3 3 3 3 2 4 3 4 4 3
26 31 37 32 42 37 40 54 60 59 55 46 31 15 9 9 8 6 5 5 5 4 3 3 2 3 3 3 3 4 4 4 4 4 5 5 5 5 5 5 4 4 4

GFSMA_250_rhum_036.txt.gz
RH
80 79 77 70 58 46 42 63 54 61 52 28 41 61 61 53 52 48 40 43 44 41 38 33 28 28 25 21 22 48 49 67 93 94 99 100 100 100 100 100 100 100 100
84 77 68 60 44 37 64 75 64 65 30 30 47 60 56 61 54 52 52 50 48 45 43 42 40 38 34 31 28 23 29 42 58 91 93 89 96 100 100 100 100 100 100
75 78 67 57 46 60 93 83 72 41 24 36 49 56 58 50 37 35 34 32 23 20 20 20 22 29 41 45 44 39 34 27 32 55 75 78 83 83 82 100 100 100 100
83 85 76 61 60 86 97 82 35 19 21 31 44 40 34 27 23 19 18 16 15 14 14 14 14 14 15 16 20 39 44 43 40 38 32 37 61 80 85 88 97 96 99
95 92 97 100 89 98 89 53 20 18 23 24 24 22 20 18 19 19 18 18 17 17 17 17 17 17 16 16 15 14 14 17 22 28 34 42 43 40 39 44 52 67 70
100 100 100 100 92 93 49 25 22 20 20 19 19 21 22 21 20 20 20 20 20 19 19 19 19 19 18 17 16 16 16 16 14 14 14 16 21 28 36 43 44 44 44
100 80 96 99 96 48 29 23 22 21 21 24 23 21 24 24 24 24 24 24 22 22 21 21 22 22 20 18 16 15 15 15 16 17 16 16 16 15 16 17 23 34 45
100 100 100 82 44 26 22 22 22 22 22 24 23 24 24 22 23 26 26 24 22 20 20 20 22 21 19 17 15 14 13 14 14 16 17 18 18 18 17 17 16 16 18
100 94 61 30 26 23 22 25 26 25 25 26 25 24 23 24 26 33 30 25 21 20 21 19 18 17 16 14 13 13 13 14 16 17 18 18 19 19 20 19 19 18 16
77 50 40 27 24 24 27 29 28 27 29 28 25 25 24 25 28 29 32 26 23 26 24 20 18 18 17 16 17 18 18 17 17 17 17 17 17 17 17 18 19 20 20
38 29 27 27 28 29 31 30 29 29 28 29 29 27 26 24 24 22 21 21 23 23 20 18 18 19 21 22 23 23 23 22 22 22 22 22 22 22 21 19 18 17 19
30 29 31 34 36 38 36 33 30 28 32 33 30 27 30 29 26 25 22 19 20 21 20 22 27 26 27 28 27 27 28 30 30 31 33 33 32 31 27 25 26 25 24
32 33 37 39 41 36 33 29 30 34 37 33 30 31 27 24 26 25 20 19 20 18 18 24 31 32 33 35 39 38 34 33 34 35 35 33 31 28 26 26 26 25 26
36 38 37 34 33 34 35 34 35 37 35 34 34 30 28 26 26 22 20 19 17 20 22 27 37 40 34 30 28 27 26 28 30 30 26 23 21 18 16 16 17 17 16
39 39 39 38 37 39 42 40 39 40 37 36 32 28 26 25 23 23 20 17 16 19 32 36 34 31 26 23 22 20 20 20 19 18 17 15 12 10 9 8 8 8 9
38 39 39 40 43 47 46 44 40 40 38 33 28 26 25 24 26 20 18 22 27 31 26 28 25 21 18 17 17 15 12 8 7 5 4 4 4 4 4 4 4 4 4
39 45 49 50 51 51 48 47 46 40 36 31 27 26 26 27 20 22 27 32 36 27 23 25 22 23 22 20 14 7 5 3 3 3 2 3 3 2 3 3 3 3 3
51 57 57 56 55 52 48 46 41 36 33 30 28 29 27 20 26 30 37 34 27 26 19 14 20 22 20 10 6 5 4 3 2 2 2 2 2 2 2 2 2 2 2
61 60 57 58 56 53 49 42 37 33 32 29 32 24 21 28 34 36 30 31 29 23 18 16 19 12 8 6 5 4 3 2 2 2 3 2 2 2 2 2 2 2 2
62 59 59 58 57 53 45 38 33 32 30 32 22 24 29 34 31 35 37 30 22 18 19 14 8 7 6 5 4 3 3 3 2 2 2 2 2 2 2 2 2 2 2
60 61 60 63 61 48 38 36 31 33 27 23 28 29 34 33 41 38 29 22 18 18 10 8 7 6 4 4 4 3 3 3 2 2 2 2 2 2 2 2 2 2 2
61 64 69 64 46 42 35 32 32 25 26 28 32 33 38 43 42 35 26 21 18 8 7 6 5 4 4 4 3 3 3 2 2 2 2 2 2 2 2 2 2 2 1
72 73 60 50 43 35 35 27 25 29 28 33 34 43 45 44 36 24 22 17 10 6 6 5 5 4 4 4 3 2 2 3 3 3 3 2 2 2 3 3 2 2 2
72 59 51 42 39 31 26 28 28 33 32 40 44 45 45 40 28 19 13 10 8 7 5 5 5 4 4 3 3 3 3 2 2 4 4 2 3 2 4 4 3 3 3
58 49 46 36 28 25 29 33 35 35 44 46 49 51 42 28 17 11 9 7 6 5 5 5 4 4 3 4 4 4 3 3 2 4 6 5 5 4 5 4 5 5 4
52 45 32 25 28 30 39 35 38 44 46 50 50 40 25 14 11 9 7 6 5 6 5 4 3 4 4 5 5 6 7 6 5 6 6 7 8 7 6 6 5 5 6

GFSMA_250_rhum_039.txt.gz
RH
94 98 98 86 88 92 88 87 82 71 62 55 59 62 70 41 26 33 48 50 46 38 33 31 27 20 16 15 17 19 25 35 43 40 32 29 37 36 52 88 91 83 90
95 94 99 98 96 97 95 93 80 73 69 77 76 81 47 27 24 30 30 27 22 17 16 16 15 14 13 13 14 14 14 14 18 34 46 46 39 31 37 46 70 88 85
94 96 99 100 95 99 91 85 76 72 87 100 98 76 27 17 19 19 15 15 17 19 20 20 20 20 19 18 17 16 15 14 15 16 16 17 28 45 44 35 40 55 74
80 94 100 100 91 89 88 82 85 78 90 100 85 48 18 16 16 16 19 19 18 17 19 20 20 20 20 20 20 21 20 20 20 17 16 15 15 16 17 30 41 42 42
66 83 90 88 80 90 89 85 93 92 97 92 50 28 18 16 19 19 20 19 20 21 22 23 24 25 25 23 22 20 20 19 19 18 17 17 17 16 14 14 14 19 31
68 68 68 97 98 100 88 100 100 100 92 54 36 21 17 19 22 21 22 23 24 24 23 23 24 26 27 26 23 21 21 21 21 20 20 20 17 16 15 14 13 12 12
66 89 99 86 100 100 100 100 100 88 62 31 20 18 20 22 24 25 28 27 25 25 26 27 28 27 28 24 21 21 21 21 20 18 16 15 15 15 14 14 14 13 12
97 99 100 100 100 100 100 100 83 43 29 22 22 24 25 25 28 29 30 28 27 27 26 26 26 27 26 26 23 20 21 19 17 15 13 13 13 14 14 14 14 14 15
99 100 100 100 100 100 95 64 49 29 22 24 26 27 30 33 32 34 32 32 31 30 29 30 28 26 25 25 24 21 18 16 14 15 17 18 20 21 22 20 19 18 18
100 100 100 100 98 85 62 43 27 26 29 28 29 32 34 35 36 35 46 45 41 39 38 34 28 26 26 25 23 19 17 15 16 16 16 16 17 18 20 22 24 25 22
100 98 100 85 64 50 30 29 30 33 35 36 39 38 36 34 33 36 39 42 42 39 38 31 29 27 26 24 20 17 17 18 19 19 22 29 31 30 28 28 28 25 23
87 85 79 63 47 31 29 32 35 39 40 40 34 36 40 39 41 35 35 38 39 39 33 29 29 27 25 21 18 19 20 20 25 30 30 29 28 28 28 27 26 27 28
88 66 52 36 32 34 39 44 42 39 39 40 38 43 48 46 44 44 39 33 27 27 27 28 29 27 21 20 23 23 26 32 33 30 29 30 31 30 28 26 24 23 20
65 51 40 42 42 38 39 43 46 46 43 48 51 49 46 44 40 35 31 27 26 28 25 25 23 18 20 22 31 31 30 29 27 29 30 29 29 25 22 19 16 15 14
63 56 47 45 47 46 45 43 42 45 54 55 51 50 50 44 36 31 26 26 26 22 26 20 18 21 28 32 30 26 22 21 24 28 24 19 16 11 8 6 6 5 5
70 62 56 49 48 49 48 44 46 57 57 53 54 55 48 42 34 28 28 26 24 22 16 21 29 30 27 22 18 16 21 22 17 10 6 6 5 5 5 4 4 3 3
93 77 66 61 53 49 46 47 54 59 57 57 57 55 46 33 30 29 26 24 19 17 21 33 34 33 23 18 20 19 11 7 5 4 4 3 3 3 2 2 2 2 2
96 80 70 61 51 51 49 50 59 60 58 58 58 45 35 35 29 28 23 18 23 28 33 30 32 23 20 28 22 12 6 5 4 4 3 3 2 3 3 2 2 2 2
86 71 62 51 50 51 54 60 63 59 59 59 49 42 37 31 28 21 21 28 35 37 31 22 19 25 26 16 8 6 6 4 4 4 3 3 2 2 2 2 2 2 2
82 66 59 54 56 60 64 65 61 60 61 52 44 36 32 24 21 24 32 34 38 34 24 19 20 21 11 8 6 5 4 4 4 3 3 2 2 2 2 2 2 2 2
79 66 61 62 66 70 69 65 62 64 53 44 39 31 23 22 28 34 36 38 30 24 20 20 17 8 6 6 5 4 4 4 3 3 3 2 2 2 2 2 2 2 2
84 82 81 79 80 73 68 68 58 51 42 38 30 24 24 34 33 42 39 33 27 19 18 11 7 6 5 4 4 4 4 3 3 3 4 2 3 2 2 3 2 2 2
97 92 84 80 77 72 63 55 49 41 32 29 26 27 37 37 44 40 36 29 23 19 10 7 6 5 5 5 5 4 3 3 3 4 5 3 4 3 4 4 4 4 3
87 83 80 73 70 60 52 45 38 30 29 26 35 36 42 44 39 34 26 23 21 10 7 6 5 5 5 5 4 4 4 4 3 3 6 7 7 6 6 5 5 5 5
84 78 79 68 57 50 41 35 32 31 29 43 40 47 43 42 38 26 22 19 9 7 5 4 5 6 4 4 4 5 5 5 5 4 7 8 9 7 10 8 7 6 5
85 80 61 54 47 39 34 35 28 43 43 43 48 44 44 36 26 21 16 8 7 5 4 5 5 4 4 5 6 7 8 8 9 7 9 9 9 9 8 10 7 8 7

GFSMA_250_rhum_045.txt.gz
RH
76 81 86 94 100 99 100 100 95 76 71 76 79 82 86 69 62 74 99 100 100 100 99 100 89 65 24 19 17 14 15 16 17 19 19 18 18 20 21 23 22 21 20
54 57 60 64 56 56 70 68 70 77 74 78 81 64 66 63 58 71 95 100 97 98 100 100 96 53 20 17 18 19 19 18 20 21 21 22 24 26 25 26 28 29 26
97 100 100 100 87 97 92 81 84 76 67 63 58 49 49 53 63 99 99 99 100 100 100 100 80 42 19 21 23 23 22 22 24 25 25 25 25 26 27 27 28 29 30
22 45 73 89 67 72 61 51 49 41 26 27 34 50 68 74 84 100 100 100 100 100 100 100 61 34 20 23 23 24 25 27 28 29 30 30 29 28 28 27 30 32 31
20 21 23 22 20 19 17 16 18 21 22 29 40 56 79 96 100 98 100 100 100 100 100 79 51 23 22 25 26 27 27 29 30 30 31 34 34 33 32 29 28 31 30
18 19 20 20 20 19 16 16 20 24 26 42 56 74 87 90 94 94 99 100 100 100 85 52 25 24 27 29 30 32 33 32 31 34 34 33 32 32 31 30 28 26 26
15 18 20 21 19 17 18 22 19 20 60 78 85 93 89 92 100 100 100 100 100 79 46 27 26 28 31 34 39 35 34 37 37 40 40 40 39 36 34 30 28 26 24
20 18 21 20 18 18 18 19 20 19 34 76 75 80 94 100 97 100 98 86 67 48 32 29 32 36 40 38 36 36 43 46 47 46 46 43 40 36 32 29 25 23 22
53 46 40 28 22 18 18 20 21 19 24 55 67 88 94 92 98 85 68 50 33 31 32 35 36 38 39 36 39 49 52 52 52 53 51 46 39 34 30 27 24 23 22
55 66 59 30 23 19 18 21 20 20 26 44 69 90 88 88 69 55 44 34 32 32 35 37 39 38 35 37 46 52 54 54 53 47 45 36 30 27 24 22 21 19 18
32 42 43 27 25 26 26 21 19 21 24 44 80 95 80 64 54 41 36 34 33 37 42 44 43 40 38 44 50 54 55 52 46 43 33 26 23 20 17 15 13 12 13
47 55 42 34 33 30 33 27 24 26 29 54 81 76 65 52 43 43 42 43 45 51 50 47 44 43 46 48 53 56 52 44 40 31 26 22 18 15 13 13 16 21 28
58 59 50 44 45 40 37 35 30 32 46 63 78 73 64 52 49 50 50 50 50 51 55 53 48 48 51 58 62 57 52 48 39 31 24 17 14 14 14 23 25 25 24
63 72 66 65 52 45 43 42 44 51 59 70 77 64 68 65 63 62 64 72 74 70 59 50 51 58 64 62 56 54 47 39 32 24 17 16 17 24 32 32 32 30 24
72 83 87 88 86 62 60 64 63 69 77 73 82 82 79 84 84 85 86 80 69 61 59 63 65 62 57 55 47 38 28 21 19 16 16 24 22 26 27 25 23 21 20
54 75 90 93 91 82 78 75 70 78 84 86 85 81 88 88 86 86 81 74 69 59 57 63 57 53 43 37 31 21 17 16 18 22 23 22 22 22 22 19 13 8 6
52 53 60 70 80 78 82 75 71 69 88 86 84 92 89 87 88 82 72 66 56 57 57 53 49 39 33 22 17 15 16 20 22 20 20 19 19 15 8 6 5 5 4
60 57 60 72 81 75 80 75 76 79 79 85 90 84 82 84 78 66 55 53 55 47 45 40 39 30 19 17 16 18 21 19 19 19 19 15 8 6 5 3 3 4 3
66 65 66 73 84 81 88 94 91 86 90 88 80 76 74 68 58 50 48 49 45 41 38 31 27 22 20 20 22 21 19 21 20 15 7 5 5 3 3 4 5 4 4
77 70 73 77 86 87 95 98 99 95 92 81 76 70 65 54 47 47 46 41 39 37 32 26 20 22 27 23 18 20 22 21 11 5 5 4 3 4 4 5 4 4 3
85 80 77 79 82 92 98 100 97 94 84 81 74 63 52 48 49 46 41 40 36 35 25 22 26 26 21 20 21 23 18 8 6 3 4 4 4 4 4 4 4 4 4
80 82 80 79 84 96 100 98 90 89 82 76 64 59 53 53 47 46 39 40 28 28 27 27 24 17 21 22 22 18 7 5 3 3 5 4 4 4 4 4 5 4 4
70 75 81 82 85 94 100 99 94 83 76 70 65 60 54 50 46 40 38 28 31 38 27 17 20 22 23 22 11 7 4 3 4 4 4 4 3 4 4 5 7 7 6
66 71 74 76 83 98 100 97 86 80 82 73 67 58 54 47 46 30 29 38 42 31 21 22 23 22 15 7 6 4 4 5 4 3 4 6 4 5 5 10 11 10 9
66 68 71 79 96 100 98 88 91 89 73 73 74 65 51 40 30 31 47 46 27 22 24 24 18 10 7 4 4 5 5 4 4 3 4 8 7 11 6 11 11 11 10
68 73 82 98 99 95 98 97 80 80 82 69 65 59 38 29 34 51 42 24 24 28 25 17 8 6 3 4 5 5 5 6 5 7 6 10 6 12 9 7 10 12 10

GFSMA_250_rhum_048.txt.gz
RH
20 23 25 27 34 47 63 73 87 90 78 68 71 61 63 52 57 66 79 69 61 65 60 86 100 100 94 97 100 100 100 54 22 18 19 17 20 21 22 24 24 25 27
16 17 18 21 23 25 45 63 70 67 55 66 71 63 72 69 72 66 60 49 47 66 94 100 100 98 96 97 100 100 93 45 22 19 20 22 23 26 28 29 29 27 26
11 12 16 20 23 25 45 51 76 95 96 92 84 68 61 36 24 24 26 30 42 66 84 100 100 100 98 100 100 100 78 38 26 21 23 27 29 31 32 33 31 32 33
11 12 14 15 18 21 21 24 27 40 56 44 37 26 16 21 21 25 29 35 66 77 89 100 98 99 100 100 100 99 68 44 24 25 27 30 32 32 35 35 36 39 39
15 15 13 14 17 18 19 20 22 22 21 18 17 17 20 19 24 45 60 55 65 88 95 84 96 100 100 100 99 86 56 28 27 29 31 32 37 37 35 36 35 35 37
20 16 14 14 17 17 17 18 20 19 18 18 18 20 21 19 38 89 81 88 92 93 100 100 100 100 100 98 79 42 31 30 30 32 36 39 35 34 35 38 39 39 38
27 27 27 34 25 18 17 17 18 17 17 17 18 16 20 20 19 52 62 77 85 91 92 99 96 93 86 69 46 40 32 32 36 38 37 39 33 35 46 49 48 44 41
22 26 32 34 40 40 26 18 16 17 17 18 18 18 18 20 19 26 53 67 78 87 87 88 76 66 58 45 34 32 34 34 36 38 40 38 35 42 49 50 50 50 46
23 24 37 47 39 46 40 33 25 21 21 22 20 19 17 22 23 32 41 52 64 65 73 70 62 52 40 34 34 35 36 36 38 38 36 36 36 41 46 50 54 52 47
30 26 34 44 37 31 35 32 34 45 46 36 21 20 19 21 22 33 38 42 60 60 61 58 48 44 39 35 35 36 38 43 47 47 43 43 45 47 51 51 47 42 36
34 30 26 29 33 35 38 39 51 53 48 29 25 27 25 23 22 22 38 46 60 60 59 52 47 48 49 50 54 58 61 63 61 52 49 52 54 48 40 34 27 23 19
37 35 29 29 38 43 44 52 56 67 54 34 35 39 39 39 25 23 27 51 71 61 60 60 59 61 63 69 70 68 62 58 58 60 58 47 40 33 26 22 20 18 15
38 35 33 34 41 44 50 53 56 66 66 50 45 51 59 48 45 32 39 63 85 77 71 75 70 63 61 60 65 65 66 68 57 55 48 38 31 27 22 18 14 13 15
43 39 39 34 45 52 57 71 67 70 72 64 64 68 65 64 60 58 61 55 64 69 81 82 85 74 70 62 60 56 52 54 50 47 43 32 25 20 15 15 20 26 26
50 44 43 39 47 61 80 88 90 89 80 85 88 85 75 71 73 62 66 66 59 58 85 91 75 74 65 61 57 52 48 48 42 35 26 20 14 13 18 27 24 23 20
57 56 52 44 61 86 88 89 100 100 100 100 100 98 91 87 79 69 62 62 59 49 48 60 62 55 54 49 45 43 43 36 28 20 13 12 16 25 22 19 19 19 17
68 58 53 48 50 76 74 68 79 100 100 100 100 98 93 93 85 79 68 66 60 52 44 54 44 42 38 38 38 35 26 20 15 12 17 23 20 18 18 19 18 15 10
76 65 65 52 58 78 81 77 77 80 81 81 88 94 92 86 84 78 73 69 64 54 43 38 41 38 35 34 31 22 16 13 15 25 22 18 18 20 16 11 6 5 5
84 73 70 64 72 85 89 87 84 82 83 81 85 94 88 82 85 77 72 67 58 47 39 34 33 33 32 30 18 13 13 23 23 19 19 19 15 9 5 5 4 3 3
89 89 87 66 69 86 92 92 87 83 84 82 79 81 82 81 80 74 68 56 54 42 35 34 32 34 25 15 12 14 24 23 22 19 15 8 6 5 3 3 3 4 4
100 97 96 80 79 73 83 85 84 82 78 75 74 72 75 78 78 71 65 58 46 42 41 42 37 22 15 13 18 23 23 24 18 8 7 5 4 3 3 4 4 4 3
100 99 100 100 85 80 74 78 76 72 70 70 74 76 75 75 79 66 55 51 49 46 42 29 22 15 16 20 22 25 22 15 12 4 4 4 3 4 4 4 4 4 4
100 98 98 93 91 87 70 68 68 68 69 72 70 74 81 75 66 64 61 53 54 52 32 20 17 19 23 25 24 18 14 8 6 3 3 5 4 3 4 3 5 5 5
100 95 96 89 86 80 68 68 68 73 74 76 80 82 75 74 71 57 60 65 47 34 26 25 24 26 25 21 15 11 7 6 4 3 4 5 3 3 3 3 7 10 10
95 92 87 86 83 79 90 88 84 84 88 86 79 76 68 61 68 61 56 40 32 35 32 27 28 24 18 13 7 6 4 4 5 4 2 5 4 5 5 4 8 10 10
92 88 84 87 100 100 100 100 95 87 83 77 75 71 70 70 57 37 34 39 40 35 29 28 21 15 9 7 5 4 5 5 4 4 3 6 6 7 8 4 7 8 8

GFSMA_250_rhum_051.txt.gz
RH
16 18 18 18 18 19 19 22 26 26 27 27 23 30 38 48 50 53 53 55 57 63 49 34 37 31 31 33 56 78 93 98 100 98 100 100 84 41 21 20 21 24 27
17 16 14 12 12 14 14 13 14 14 14 16 18 21 31 49 74 86 68 55 49 34 18 18 17 24 28 56 76 97 100 100 100 100 100 100 75 38 24 22 24 25 27
18 16 14 15 14 13 13 13 14 15 16 18 21 23 25 27 25 29 28 25 19 19 23 21 30 41 58 74 89 100 100 100 100 100 100 100 79 46 33 25 27 27 28
21 20 18 17 19 17 15 14 14 15 17 18 19 21 20 20 22 21 19 18 19 22 20 46 79 86 99 100 100 100 100 100 100 100 100 100 80 50 34 26 31 34 34
26 19 18 17 16 18 20 20 18 19 20 18 19 21 20 20 20 20 19 19 22 24 22 61 66 73 93 99 100 100 100 100 100 100 100 92 70 38 30 30 31 32 35
34 34 24 19 17 17 20 23 22 21 19 20 20 21 19 17 18 19 19 19 20 25 24 25 37 48 77 91 96 100 100 100 100 99 83 59 37 33 32 32 33 38 38
39 39 40 34 24 20 19 24 30 28 29 30 22 20 19 18 19 19 19 21 21 22 21 23 31 48 52 73 74 77 84 79 79 73 55 43 40 38 37 36 36 34 35
32 30 28 27 26 25 23 23 24 29 35 39 41 40 31 23 21 21 22 27 25 24 24 22 22 27 43 52 59 68 75 68 59 50 42 37 36 36 36 36 37 38 39
44 64 53 42 36 31 29 26 23 23 31 40 39 46 49 43 37 29 30 31 29 26 23 23 26 29 33 45 50 58 61 55 46 42 41 40 39 40 42 44 49 53 56
56 94 71 44 51 50 40 29 26 24 26 36 35 29 31 37 43 67 72 45 36 31 28 25 25 26 35 49 56 54 57 53 48 47 49 52 56 64 71 71 68 64 58
75 64 59 42 39 36 34 33 32 30 28 28 28 31 33 37 46 70 84 42 46 47 43 46 35 34 40 46 58 60 52 56 62 65 64 55 50 55 53 50 46 44 36
68 56 45 45 45 40 40 35 33 31 29 31 36 42 52 49 55 79 87 60 49 51 45 40 40 41 49 59 61 58 59 63 58 55 53 45 47 46 39 33 29 27 30
69 59 51 49 47 43 42 36 37 38 34 37 48 55 57 62 68 77 92 77 72 90 83 68 61 52 46 50 58 58 61 60 51 49 48 48 43 38 32 25 29 31 32
70 61 57 54 55 51 48 43 38 39 36 38 49 56 58 71 86 91 88 90 81 87 99 97 90 72 62 55 52 46 42 40 40 41 43 35 34 29 26 27 29 29 29
76 73 60 61 63 59 56 53 50 48 43 45 60 76 74 77 87 96 94 94 90 96 100 100 94 90 75 67 58 47 46 41 39 40 38 31 23 24 23 25 26 24 17
78 70 65 75 86 71 71 69 55 54 48 49 72 90 98 96 92 92 100 99 91 89 95 89 91 88 76 71 67 65 58 49 44 35 27 26 24 24 24 25 18 14 17
66 66 85 100 95 78 83 83 70 61 52 50 59 75 86 86 82 80 76 80 78 71 72 79 64 63 58 58 57 52 45 42 38 30 28 27 24 24 19 15 17 20 18
75 84 100 100 98 84 93 97 98 79 65 62 67 71 79 85 82 77 73 69 69 66 63 62 61 60 55 51 47 40 36 30 29 28 24 23 16 16 20 24 19 17 14
83 92 100 100 94 93 99 100 97 83 68 60 64 74 80 83 80 75 68 62 60 58 52 49 50 48 48 45 38 32 35 34 29 20 16 18 23 25 19 16 13 9 6
96 100 100 100 96 100 100 100 94 78 71 67 70 69 69 71 68 68 68 62 56 55 54 50 51 47 38 38 40 41 39 25 21 22 28 27 20 17 14 9 5 5 4
100 100 100 100 100 100 94 86 83 77 77 73 78 74 66 66 69 64 61 60 59 57 55 53 47 44 48 50 40 27 19 26 32 25 24 20 12 8 5 5 4 3 3
100 100 100 100 100 100 98 92 84 85 84 85 79 75 70 66 62 66 64 62 61 54 44 45 50 47 40 24 19 27 30 29 32 17 10 7 5 5 3 2 3 4 4
100 100 100 91 100 90 97 92 93 87 86 81 80 79 87 92 84 77 65 55 51 51 51 48 36 23 26 27 27 28 24 16 10 7 6 7 4 3 3 3 3 4 4
100 100 100 98 94 93 95 96 88 82 81 84 92 96 84 76 70 59 54 64 68 54 33 30 34 32 27 24 21 14 9 8 7 6 4 4 3 4 3 2 3 4 6
97 96 95 97 100 97 92 85 78 81 96 94 84 81 69 60 64 69 68 58 40 37 44 39 30 25 21 15 9 8 7 6 4 3 3 4 4 4 3 2 3 6 9
82 93 96 99 97 87 83 86 95 88 81 82 75 74 78 78 68 52 37 38 47 49 44 33 26 18 12 8 6 5 4 3 3 4 4 4 3 5 5 4 4 6 9

GFSMA_250_rhum_054.txt.gz
RH
22 18 15 14 14 15 16 16 16 16 16 16 17 17 16 16 15 15 15 16 18 21 30 43 61 59 31 25 18 17 16 19 38 57 87 100 100 100 100 100 100 94 52
18 16 14 16 20 21 20 20 18 16 15 14 13 14 14 14 14 15 14 15 15 18 23 24 28 21 20 19 20 18 33 53 58 76 99 100 100 100 100 100 100 90 52
19 16 19 23 28 19 17 21 23 21 21 20 17 15 15 16 18 19 17 16 16 17 20 22 22 20 19 19 20 29 64 69 85 93 97 100 100 100 100 100 100 92 66
27 27 26 22 23 24 24 23 22 23 20 21 21 19 17 16 17 16 18 19 18 19 21 22 21 21 20 21 21 20 39 51 82 88 88 99 100 100 100 100 100 100 89
33 26 30 34 40 49 47 32 22 19 18 18 18 19 20 20 20 21 23 22 19 22 23 23 21 21 21 20 20 22 23 38 59 87 85 91 94 99 100 100 100 98 86
71 61 43 37 37 34 28 34 38 30 22 19 18 18 19 20 21 22 20 21 22 26 25 23 22 21 22 26 23 24 30 36 50 66 75 73 90 98 97 98 96 90 75
59 44 42 54 45 42 36 36 36 37 32 30 26 21 19 20 24 30 34 42 45 39 30 27 24 23 23 27 23 24 27 32 40 56 57 62 75 90 80 78 81 64 48
100 98 81 72 77 61 43 38 31 29 28 26 27 25 24 22 24 30 35 42 52 60 60 49 36 29 36 39 32 28 25 27 29 34 56 56 63 72 69 58 51 47 42
94 85 85 75 66 68 64 51 55 34 32 41 47 38 30 25 25 28 33 44 50 59 50 44 48 53 68 65 41 34 31 29 30 37 53 63 62 59 58 56 51 48 46
57 72 88 79 100 99 98 61 48 35 31 28 30 30 29 28 28 26 25 33 39 40 47 55 65 75 91 78 43 33 32 37 37 39 62 74 77 73 66 64 63 59 57
84 96 100 100 100 100 92 80 63 47 41 34 32 32 33 30 30 27 27 28 34 40 44 51 59 73 82 80 67 42 43 40 42 49 53 54 63 70 74 77 77 74 72
67 72 99 100 100 90 83 75 60 56 46 42 42 36 35 34 33 31 32 36 44 49 50 53 63 78 88 93 91 67 60 63 61 65 59 49 42 41 42 45 46 44 40
82 74 70 71 100 100 77 65 68 66 56 54 50 46 46 38 38 34 34 44 64 69 66 61 56 58 66 68 74 77 74 78 76 77 72 64 58 57 55 44 37 33 29
74 74 65 56 98 100 89 88 83 80 65 59 64 64 58 52 49 42 38 41 62 85 95 91 82 76 73 76 79 78 80 82 80 79 78 71 61 47 40 35 31 29 28
67 66 75 88 94 97 94 100 91 85 74 71 87 76 78 68 59 52 47 46 47 66 97 98 90 85 77 72 68 64 62 61 60 58 49 42 43 37 34 36 31 30 29
61 93 100 100 100 100 99 96 100 90 83 94 93 94 81 87 67 63 55 49 51 54 68 86 95 93 87 78 72 67 58 56 54 49 42 38 35 34 32 32 30 28 26
81 87 100 100 100 100 100 87 89 97 93 95 96 91 82 68 70 72 68 61 56 54 58 69 74 83 88 82 73 66 58 54 48 41 39 40 40 37 32 30 30 28 26
65 80 84 100 98 84 81 89 99 96 99 100 92 74 74 86 80 78 70 66 65 59 53 53 56 63 65 62 59 57 52 48 45 45 44 43 42 41 38 32 28 24 20
75 70 75 77 76 94 98 100 100 100 100 92 83 85 75 69 75 75 69 66 63 60 54 50 53 58 58 54 51 50 49 47 44 41 40 39 32 28 21 21 26 29 25
70 83 85 86 95 94 100 96 100 100 100 93 67 82 86 87 81 75 69 64 60 61 63 67 68 67 60 59 56 52 57 55 50 38 28 23 24 30 30 26 20 14 12
64 65 68 79 100 100 100 100 97 97 100 94 87 87 95 81 83 79 68 64 75 82 81 72 68 65 57 55 55 49 39 32 28 26 30 29 24 20 13 9 7 6 5
63 56 75 100 100 100 100 94 92 100 100 100 100 97 91 90 76 72 77 79 76 76 70 64 57 49 46 30 29 32 33 31 32 25 21 18 9 7 6 5 4 4 3
70 86 100 100 100 100 100 98 91 79 74 90 94 89 84 77 74 76 75 79 77 68 51 43 36 30 35 36 33 33 29 25 21 13 7 8 6 5 4 3 2 2 3
100 98 100 100 100 100 100 93 94 98 100 94 85 77 77 80 83 82 74 68 61 48 41 42 43 43 37 28 24 23 18 12 8 6 5 6 4 3 3 2 3 3 3
100 100 100 100 97 99 100 100 99 97 80 84 88 84 82 78 72 67 68 60 54 53 54 49 39 31 27 22 18 13 8 7 6 4 2 4 4 4 3 2 3 3 4
100 100 97 88 98 88 87 78 66 75 76 80 78 75 74 75 74 60 52 53 62 59 50 41 33 26 21 14 8 6 6 4 3 4 3 4 4 3 4 3 4 5 5

GFSMA_250_rhum_060.txt.gz
RH
34 30 25 26 30 29 30 36 33 38 35 34 34 27 27 25 23 21 19 20 21 19 16 17 20 22 22 20 17 16 16 17 18 19 21 22 21 20 19 20 20 25 60
35 32 35 35 36 39 42 47 45 44 40 37 35 33 29 26 25 23 22 20 20 22 23 22 20 20 19 20 21 20 19 19 20 20 25 27 24 24 21 20 21 21 27
43 49 51 50 55 58 58 62 56 49 41 43 40 42 44 41 35 31 31 34 36 35 33 32 25 21 20 19 20 23 23 23 24 26 28 30 31 29 24 20 22 22 26
69 76 71 70 68 62 56 50 52 56 51 52 50 46 43 46 44 41 45 36 31 29 31 35 34 31 29 26 23 23 27 30 28 29 32 33 32 30 27 24 24 25 24
83 80 77 73 70 64 60 50 61 68 79 88 75 73 71 72 67 57 51 52 50 42 36 31 28 28 29 29 30 29 27 29 32 36 42 48 46 38 29 27 26 30 29
92 86 75 59 59 58 53 49 47 47 59 70 73 74 82 75 72 66 63 54 50 46 39 33 32 31 27 26 30 34 30 29 32 42 56 59 59 58 49 35 29 33 36
88 81 60 75 71 70 65 60 45 40 45 54 65 60 53 50 49 47 53 57 59 61 50 41 41 40 38 31 27 30 30 30 33 40 60 80 81 76 81 69 52 43 49
83 84 76 72 70 87 81 82 63 58 53 49 45 51 56 50 43 44 49 57 64 69 66 67 64 53 50 39 33 32 33 35 32 35 54 65 71 76 71 68 72 74 72
78 84 82 81 88 90 87 80 80 86 74 72 58 48 51 52 52 53 51 51 56 61 59 74 74 67 59 50 40 38 36 35 34 36 39 43 54 65 64 66 68 79 85
80 76 80 85 95 100 98 94 93 94 96 92 87 83 72 74 69 71 75 68 68 64 59 70 79 81 67 58 50 51 49 47 39 36 36 38 45 50 59 70 76 79 81
93 83 88 99 100 95 94 94 100 100 95 86 84 83 91 91 87 92 99 95 90 87 71 84 88 86 68 64 57 60 60 62 54 49 47 42 38 37 40 47 54 61 65
94 100 99 98 100 99 94 99 100 99 94 86 84 81 93 100 100 100 100 99 100 92 95 98 98 93 85 81 84 78 74 73 65 61 60 54 47 42 41 43 46 47 52
100 95 99 88 87 92 100 99 96 80 87 97 88 91 100 99 100 100 100 98 93 99 100 100 100 95 88 88 99 88 74 81 94 86 77 70 62 58 55 51 47 46 50
100 100 100 100 100 100 100 100 100 99 92 100 100 99 100 100 100 100 99 99 97 96 100 100 90 82 75 88 99 82 82 78 70 60 64 63 62 63 62 59 56 54 49
99 100 100 100 100 100 100 100 100 94 100 100 100 100 100 100 100 100 96 93 98 93 96 100 86 89 91 90 98 83 76 76 77 66 55 53 55 52 50 51 52 56 55
93 98 100 100 98 100 94 97 94 88 100 100 100 100 100 100 99 95 99 98 92 70 84 100 99 94 93 82 83 82 83 71 61 56 48 49 55 60 69 74 73 69 68
89 95 98 99 99 92 90 88 94 100 100 100 100 100 100 98 100 100 97 91 100 100 97 92 100 90 88 83 84 62 53 53 48 50 54 63 65 61 61 62 59 57 58
62 72 76 78 76 79 96 100 100 100 100 100 100 100 100 100 100 100 100 99 99 94 98 88 79 73 72 65 56 66 59 62 67 67 63 59 55 50 46 42 39 38 38
45 52 70 86 93 100 100 100 98 93 92 92 97 100 100 100 100 100 100 100 96 94 82 80 80 68 63 68 69 65 73 76 72 63 55 48 42 38 34 34 36 39 37
38 45 55 73 77 82 90 95 87 92 88 89 96 100 100 96 97 100 99 80 79 84 92 86 75 77 80 66 71 73 69 66 68 59 46 41 41 40 36 31 28 24 23
38 41 52 56 69 91 99 100 99 100 100 100 100 100 100 83 97 100 94 90 82 90 78 70 68 64 64 70 66 66 61 56 50 45 44 38 30 26 21 18 14 10 8
45 53 70 97 97 100 100 100 100 100 100 100 88 96 100 78 83 89 89 91 79 65 58 60 59 84 84 69 58 55 45 43 41 42 38 34 20 17 11 8 6 5 4
48 60 78 91 100 100 100 100 100 100 100 100 88 100 100 100 90 82 71 68 79 78 73 92 86 78 63 52 42 44 44 38 36 29 21 21 11 7 6 4 3 3 2
62 78 92 98 98 100 99 99 100 100 100 100 100 95 96 88 87 89 90 91 81 74 90 80 64 50 43 42 38 36 34 29 25 18 8 6 5 4 3 3 3 2 2
83 97 100 100 100 100 100 100 100 100 93 80 73 72 85 91 90 72 78 92 86 80 68 51 46 43 40 38 34 30 24 19 12 7 4 4 4 4 4 4 3 2 2
100 100 100 99 76 93 92 95 82 73 75 81 91 99 93 85 81 74 67 68 64 59 52 44 42 40 38 33 26 22 13 7 6 6 5 6 4 4 4 3 3 3 3

GFSMA_250_rhum_066.txt.gz
RH
44 40 35 33 31 29 30 33 37 40 38 40 42 40 49 55 52 50 48 42 36 32 29 27 32 42 44 44 42 46 46 46 38 33 31 31 30 29 29 29 28 24 25
38 35 33 33 35 36 36 34 41 43 47 47 43 55 58 61 62 61 47 41 38 36 35 33 34 37 42 50 45 45 50 53 44 41 42 36 38 36 32 28 31 30 28
41 38 41 42 42 40 37 41 44 53 56 58 60 71 69 65 64 56 47 44 40 40 36 37 36 44 44 54 58 50 50 51 51 49 48 43 41 45 46 37 27 29 34
42 45 50 48 49 51 52 54 59 70 80 72 76 76 73 69 67 59 57 51 44 42 42 40 38 42 49 51 49 62 59 54 54 47 46 46 40 41 39 39 35 30 29
58 62 62 61 61 65 68 72 88 96 95 88 76 76 73 75 72 60 55 52 52 48 51 48 47 48 51 53 48 50 49 49 52 49 51 47 48 44 40 42 36 34 31
72 77 73 63 66 70 80 85 99 98 88 86 84 96 92 88 76 67 70 63 56 62 64 63 59 64 63 60 52 54 52 57 54 49 48 51 54 56 64 63 54 44 38
80 74 71 65 74 92 100 100 100 100 100 100 100 100 100 97 87 76 86 77 77 74 76 76 76 74 70 64 60 57 57 56 55 58 55 55 61 68 81 94 70 58 46
80 74 88 96 96 100 100 100 100 100 100 100 100 100 98 98 90 86 84 82 86 79 89 92 100 92 72 70 67 61 59 56 56 57 63 70 79 81 85 100 83 71 60
100 99 99 95 94 90 93 97 100 100 100 100 98 94 99 99 98 100 96 86 79 100 100 100 96 94 92 74 73 84 80 75 75 84 87 89 92 92 100 96 92 83 68
100 100 100 100 100 100 100 99 100 100 100 100 100 97 90 96 95 94 84 77 98 93 98 100 100 100 100 99 92 90 86 86 80 83 82 91 93 100 100 100 97 90 82
100 100 100 100 100 100 100 100 100 95 88 89 97 100 100 100 99 100 88 100 100 100 100 100 100 100 100 96 85 86 74 72 71 73 77 88 88 100 100 100 87 82 78
100 100 100 100 100 100 100 100 100 100 100 100 100 100 100 100 99 99 100 100 100 100 100 100 100 100 100 100 75 71 72 77 81 84 85 85 86 93 94 88 90 83 85
100 100 100 100 100 100 100 100 100 100 100 100 100 100 100 100 100 100 100 100 100 100 100 100 100 100 100 96 96 94 97 83 89 96 92 85 88 87 85 78 68 76 75
100 98 99 100 98 92 94 97 100 100 100 100 100 100 100 100 100 100 100 100 100 100 100 100 100 100 100 97 97 79 83 93 91 95 90 83 75 70 70 68 76 74 73
85 87 91 96 99 96 98 96 100 100 100 100 100 100 100 100 100 100 100 100 100 100 100 100 100 100 95 100 74 87 89 88 75 78 79 71 68 73 75 75 73 66 66
89 90 97 100 100 100 100 100 100 100 100 100 100 100 100 100 100 100 100 100 100 100 100 100 100 92 96 89 64 68 71 65 66 72 69 69 73 75 74 72 68 67 61
100 100 100 99 97 96 95 94 92 97 92 100 100 100 100 100 100 100 100 100 100 100 100 100 100 94 90 99 91 72 65 59 70 81 77 63 63 67 80 77 72 66 52
58 56 61 59 61 67 72 74 78 97 100 100 100 100 100 100 100 100 100 100 100 100 100 100 93 78 82 86 91 100 82 77 79 77 75 79 69 68 63 57 53 47 46
15 16 16 18 21 24 29 37 44 54 69 92 99 100 100 100 100 100 100 100 100 100 100 100 100 100 85 99 99 96 100 95 84 69 64 61 59 58 52 48 50 49 44
15 16 17 17 16 16 19 25 30 41 62 75 90 88 97 100 100 100 100 100 100 94 98 97 99 98 96 86 78 83 80 73 73 70 62 59 56 56 53 46 42 37 41
17 17 17 14 12 13 14 18 29 39 48 59 67 81 95 97 99 100 97 93 88 85 99 100 100 95 81 76 72 76 72 76 78 71 57 64 57 55 52 44 43 41 37
11 13 16 14 12 11 12 13 20 38 54 61 68 84 100 99 100 98 98 93 91 86 95 95 79 83 88 74 70 80 71 63 64 64 60 61 46 49 45 40 33 23 12
31 26 18 17 15 17 20 26 34 48 59 68 69 84 99 99 98 98 79 74 75 81 82 82 80 72 68 66 71 67 69 76 69 48 45 52 49 42 36 21 10 7 6
49 39 32 34 41 54 59 68 71 74 74 75 79 93 98 96 89 88 90 90 79 79 78 76 68 68 66 72 75 71 55 48 47 46 42 44 32 23 11 6 6 6 8
65 66 66 64 57 56 58 61 70 80 85 84 83 85 81 77 78 85 81 79 80 82 79 84 83 80 77 72 58 48 45 46 46 40 33 28 14 9 7 6 6 9 10
63 65 66 70 76 82 82 82 78 77 78 75 81 88 92 93 88 98 100 97 98 100 96 96 86 72 54 47 45 45 43 38 32 24 13 11 7 8 9 6 7 8 8

GFSMA_250_rhum_072.txt.gz
RH
62 60 58 57 55 52 56 59 63 56 45 39 36 37 39 40 39 37 36 38 42 49 62 63 60 64 68 68 68 61 62 59 61 55 54 49 47 41 36 35 41 50 58
60 61 59 63 61 62 66 66 59 50 41 39 39 46 51 45 41 44 54 54 64 59 64 77 68 70 64 64 66 72 64 65 64 60 55 56 56 48 42 39 44 46 47
77 79 73 66 65 62 68 61 50 43 42 42 49 56 56 52 55 54 57 74 75 81 79 78 85 88 96 98 97 78 62 76 70 69 62 52 50 51 57 46 43 49 53
80 72 62 63 60 54 53 48 45 43 47 61 54 58 57 60 69 72 74 94 72 82 93 100 100 100 100 90 75 73 80 80 72 67 57 53 53 62 56 58 58 59 54
69 67 63 60 57 50 47 44 46 54 59 61 57 67 74 80 72 86 86 80 92 98 100 98 96 92 84 78 84 87 87 77 63 59 59 56 54 66 72 85 70 65 62
74 69 62 60 53 53 51 57 61 63 64 66 75 75 88 89 100 100 95 91 81 92 100 100 99 100 100 99 100 97 91 81 76 72 70 63 66 79 68 77 71 64 61
71 73 73 62 70 66 66 68 64 65 70 67 74 86 92 98 95 100 99 100 100 91 100 100 100 100 100 100 100 94 97 84 79 75 77 85 69 78 82 92 90 67 62
80 78 77 77 65 63 63 67 61 61 60 64 84 90 75 80 100 100 100 100 100 100 96 100 100 100 100 93 98 100 100 93 85 80 91 91 82 77 98 91 79 69 73
80 82 76 75 66 63 58 59 61 62 76 77 77 84 82 81 86 100 100 100 100 100 100 100 100 100 100 100 100 100 100 99 98 99 98 98 89 96 79 93 94 80 86
75 73 82 79 80 68 67 74 72 78 79 87 95 100 83 94 100 100 100 100 100 100 100 100 100 100 100 100 100 100 100 100 93 92 100 100 99 95 86 92 85 92 86
85 90 73 69 69 67 70 77 72 74 97 98 98 96 83 99 100 100 100 100 100 100 100 100 100 100 100 100 100 100 100 100 100 100 100 80 83 100 79 100 84 86 82
72 75 62 56 60 62 69 72 68 65 72 74 73 84 68 71 80 97 99 100 100 99 99 100 100 100 100 100 100 100 100 100 98 78 71 82 96 86 97 100 97 75 68
78 78 82 77 70 67 58 58 60 58 57 53 64 63 71 78 87 97 91 88 96 93 97 100 100 99 100 100 100 96 85 100 97 100 100 98 100 94 92 93 81 76 70
91 86 80 76 56 50 47 43 49 49 52 56 67 83 94 100 100 100 99 99 100 100 100 100 100 100 100 100 100 100 100 100 100 100 100 100 96 100 90 100 83 80 81
76 76 61 55 58 55 55 56 52 53 56 75 97 100 100 100 100 100 100 100 100 100 100 100 100 100 100 100 100 100 100 100 100 100 100 100 98 99 100 89 79 91 82
53 57 73 68 62 57 49 62 53 41 33 26 28 33 37 54 66 87 97 100 100 100 100 100 100 100 100 100 100 100 100 100 100 100 100 100 100 100 94 94 81 85 100
60 68 70 82 78 69 34 28 27 21 18 18 19 22 26 31 37 49 68 90 100 100 100 100 100 100 100 100 100 100 100 100 100 100 100 100 99 96 81 77 82 93 100
96 100 94 72 45 31 30 22 19 21 18 18 20 18 19 21 28 32 39 58 80 95 100 100 100 100 100 100 100 100 100 100 100 91 94 84 83 73 66 84 87 92 95
92 69 52 55 39 32 28 24 20 17 15 14 9 8 10 10 13 26 37 43 50 57 69 85 86 77 89 96 98 100 100 96 92 84 83 72 75 78 90 81 84 77 71
52 51 47 45 39 34 30 27 21 18 13 13 12 10 9 9 11 15 23 44 59 64 63 60 59 60 71 83 90 95 90 82 80 77 83 82 84 75 66 58 55 49 45
51 45 46 42 40 38 34 32 34 42 46 42 31 19 12 14 14 16 22 33 43 56 69 80 80 77 73 80 80 85 89 86 86 91 81 60 61 57 47 42 42 44 47
54 47 43 43 42 41 38 34 33 39 47 50 46 39 40 34 32 30 38 42 47 57 78 92 91 79 74 80 93 100 100 90 77 64 62 49 49 48 45 46 48 48 45
48 46 52 48 50 50 41 36 38 41 45 43 44 46 47 47 51 63 80 87 92 94 95 97 98 98 98 96 96 91 82 69 56 51 50 49 47 44 38 33 32 29 27
45 50 52 56 55 44 44 41 44 50 53 52 52 49 47 49 54 62 67 71 76 78 78 79 76 73 72 70 65 59 55 52 49 46 45 45 36 35 28 22 19 14 12
50 50 52 58 53 55 56 54 55 58 57 58 57 56 55 55 61 64 67 71 74 75 78 76 78 74 75 73 70 66 60 57 57 40 32 29 23 21 12 9 9 10 10
54 51 54 57 58 62 64 63 65 68 71 70 72 77 81 81 82 84 84 80 78 78 78 77 75 74 70 68 65 59 51 46 33 23 23 20 12 10 9 7 8 8 9

GFSMA_250_rhum_075.txt.gz
RH
37 36 42 44 45 57 70 74 70 68 58 51 49 49 44 38 32 34 38 42 43 42 48 56 63 75 72 79 81 93 88 96 99 85 71 74 68 64 51 48 47 40 42
42 46 71 88 86 76 74 72 72 63 54 50 50 44 39 34 38 41 48 45 49 53 59 68 70 76 93 91 97 91 100 100 95 78 70 80 69 61 56 54 50 46 42
44 56 94 85 72 71 70 74 60 57 51 42 37 35 40 42 46 49 54 51 58 56 60 78 90 83 94 93 85 100 100 93 76 70 67 78 83 68 58 59 50 48 49
62 76 82 74 73 73 79 64 58 49 45 44 39 42 49 52 48 53 64 64 63 76 76 72 89 92 93 100 81 98 100 87 76 74 77 77 74 66 64 52 55 57 54
63 66 60 69 86 85 74 62 53 49 49 44 54 50 61 56 61 61 63 69 78 88 91 76 81 100 99 100 98 91 100 100 93 97 76 71 70 62 66 57 57 68 73
56 71 86 97 90 82 72 64 60 58 56 57 57 62 61 63 63 68 71 73 81 91 96 94 90 89 100 87 98 100 100 100 100 83 97 90 87 79 71 59 56 65 67
89 94 100 94 86 79 80 85 73 65 73 71 66 65 65 66 71 69 67 77 89 97 100 92 100 100 100 100 100 100 100 100 100 88 94 100 100 93 77 69 56 60 86
100 100 100 91 88 83 78 84 80 83 78 74 70 67 67 71 67 68 67 86 100 100 100 100 100 100 100 100 100 100 100 100 99 100 100 100 100 95 88 68 53 79 75
100 100 100 100 96 89 84 77 81 89 84 75 75 72 58 69 68 71 74 94 98 99 100 100 100 99 100 100 100 100 100 100 100 100 100 100 100 99 69 69 96 98 82
100 100 100 100 94 88 82 83 97 91 76 77 70 70 66 68 58 62 59 75 78 76 84 96 89 100 100 100 100 100 100 100 100 100 100 100 92 96 100 100 87 74 65
100 98 94 94 90 85 84 96 92 84 77 66 55 57 66 55 56 52 49 52 61 68 83 80 79 88 99 100 100 100 100 100 93 98 100 100 100 99 87 56 72 74 94
92 88 76 73 72 69 82 79 74 70 65 56 50 50 56 56 73 79 89 91 94 98 100 100 100 100 100 100 100 100 100 100 100 100 100 100 100 94 82 93 93 100 94
85 88 80 89 86 81 85 77 73 60 55 45 45 46 64 92 98 100 100 98 92 100 100 100 100 100 100 100 100 100 100 100 100 100 100 100 100 97 91 100 100 100 100
83 100 99 100 97 90 84 71 60 49 46 41 39 46 62 42 38 30 29 31 38 55 79 100 100 100 100 100 100 100 100 100 100 100 100 100 100 100 100 100 100 100 100
95 96 100 100 92 79 72 53 49 45 42 38 43 26 20 20 18 19 21 25 30 37 56 69 91 100 100 100 100 100 100 100 100 100 100 100 100 100 100 100 100 100 100
100 100 97 86 77 59 45 49 52 45 50 41 26 23 21 20 16 13 14 16 23 29 34 54 77 100 100 100 100 100 100 100 100 100 100 100 100 100 100 100 100 100 100
100 90 76 65 47 58 63 66 76 71 41 32 28 27 24 19 20 12 7 9 13 19 34 40 58 86 100 100 100 100 100 100 100 100 100 100 100 100 100 100 100 100 88
81 70 59 51 64 79 92 85 79 42 38 34 30 30 26 20 15 12 6 6 7 10 20 37 51 61 71 84 100 100 100 100 100 100 100 100 100 100 100 100 89 71 68
67 63 65 87 93 96 90 73 46 43 39 38 36 34 30 27 21 16 12 10 10 10 14 29 52 71 84 90 87 88 92 98 99 99 100 100 97 76 66 67 58 64 67
87 88 94 93 93 78 48 50 47 41 42 46 40 39 35 32 34 31 25 20 16 14 18 24 28 43 70 90 95 92 85 80 80 84 82 78 71 62 55 59 59 55 54
92 99 96 90 56 53 49 54 44 44 49 46 45 41 39 39 41 43 40 37 34 34 40 49 49 54 64 71 77 80 83 85 87 86 77 73 64 52 50 45 45 50 54
100 97 71 60 53 52 55 47 48 50 52 48 49 43 42 44 46 47 46 45 46 47 52 57 61 68 72 76 82 86 83 79 78 79 65 60 60 55 56 55 54 51 47
88 66 64 53 58 53 49 55 52 53 52 55 51 46 45 51 56 52 51 50 50 55 60 64 64 66 63 64 64 65 63 64 65 61 59 52 48 44 40 34 32 30 26
69 64 58 60 51 48 52 52 56 53 58 56 51 50 52 53 52 49 50 57 63 66 72 79 80 79 77 77 77 76 74 72 68 69 70 61 50 43 28 26 24 21 20
64 68 60 50 50 57 50 49 54 58 60 58 55 52 51 55 60 60 59 57 59 62 64 64 66 70 75 77 76 74 72 67 64 59 57 49 38 35 24 14 13 13 12
72 55 49 51 56 54 51 52 58 60 63 64 59 59 65 67 65 61 60 61 65 68 72 72 72 76 78 74 62 51 44 39 38 36 36 33 32 29 16 7 8 11 13

GFSMA_250_rhum_078.txt.gz
RH
36 38 40 42 40 39 40 40 43 61 70 64 56 58 56 50 41 38 35 39 44 48 49 55 62 63 64 69 75 82 81 77 100 100 86 100 100 86 84 73 72 69 64
50 52 49 45 42 41 41 47 52 55 52 58 57 55 50 44 39 40 43 46 51 56 54 61 61 71 70 78 89 99 79 85 100 100 100 94 100 90 77 78 78 66 56
63 61 53 52 50 49 54 59 53 56 75 67 66 56 49 47 49 51 54 60 56 56 63 65 66 69 68 74 97 100 90 87 100 100 88 100 100 88 90 91 81 79 67
68 64 60 60 64 65 65 60 68 92 80 68 59 51 49 54 56 58 64 60 62 64 72 71 74 69 75 94 95 100 88 100 96 100 100 98 100 99 92 98 78 77 80
70 68 69 75 75 68 63 76 100 87 73 72 66 69 67 66 64 63 70 72 74 68 57 60 77 85 85 91 100 100 100 96 100 100 100 100 100 89 89 97 90 88 82
80 83 83 80 77 77 96 100 100 93 97 83 84 86 78 71 69 73 75 80 70 61 52 65 84 84 92 100 100 100 100 100 100 100 100 100 100 99 99 100 98 91 93
88 91 85 88 88 100 100 100 99 100 98 92 90 84 83 73 78 73 89 75 61 51 54 71 81 78 83 100 100 100 100 100 100 100 100 100 100 100 100 100 100 100 100
85 91 96 93 99 100 96 94 100 100 94 93 88 89 79 87 96 83 70 64 52 52 59 68 68 67 80 98 100 100 100 100 99 100 100 100 100 100 100 100 100 100 100
98 94 99 99 100 94 99 97 90 100 100 98 95 81 83 85 83 68 63 50 44 46 47 53 66 90 97 100 100 100 100 100 100 100 100 100 100 100 100 100 100 100 88
100 100 100 100 100 100 97 100 100 100 100 91 86 93 86 77 72 58 49 46 45 46 55 91 100 100 100 100 100 100 100 100 100 100 100 100 100 100 100 100 81 96 99
100 100 100 100 100 95 99 100 100 97 96 79 98 85 87 67 54 46 46 47 53 56 54 44 50 59 73 100 100 100 100 100 100 100 100 100 100 100 100 100 100 97 100
93 95 92 94 98 100 100 100 100 94 97 98 88 85 70 54 45 40 40 53 50 28 26 25 28 33 54 99 100 100 100 98 100 100 100 100 100 100 100 100 100 100 98
87 84 83 94 93 96 97 87 85 86 92 85 79 73 55 42 37 35 44 31 24 22 25 26 24 24 37 90 100 100 100 100 100 100 100 100 100 100 100 100 100 100 100
100 100 100 99 96 91 82 86 84 82 79 75 64 52 38 31 40 45 28 24 24 28 28 22 21 21 36 61 100 100 100 100 100 100 100 100 100 100 100 100 100 100 100
100 100 100 100 100 98 93 97 92 85 78 68 53 37 31 41 57 35 31 27 29 22 18 16 14 14 31 55 98 100 100 100 100 100 100 100 100 100 100 100 100 100 100
100 99 97 99 100 96 97 100 91 76 63 50 41 39 62 66 42 35 33 34 28 22 16 16 10 8 22 34 81 100 100 100 100 100 100 100 100 100 100 100 100 100 100
100 97 100 95 100 100 93 88 74 61 45 44 49 62 61 43 40 37 40 36 33 25 19 18 11 10 11 27 35 65 100 100 100 100 100 100 100 100 100 100 100 100 100
100 91 100 90 99 99 84 65 64 44 66 62 80 67 45 43 39 43 40 41 37 35 32 26 19 12 13 20 40 56 92 100 100 100 100 100 100 100 100 100 100 100 100
100 100 99 99 86 73 60 68 57 84 69 91 74 49 46 41 45 44 43 46 40 37 37 36 31 25 24 27 33 44 55 95 100 100 100 100 100 100 100 100 98 99 93
100 96 78 76 69 74 73 81 94 84 89 64 54 49 43 47 49 45 48 43 40 39 41 40 39 40 40 49 55 60 64 70 80 89 93 99 100 99 99 100 99 91 82
89 73 80 83 91 93 99 95 92 85 61 55 52 46 50 52 49 49 49 45 41 39 41 44 43 42 44 45 50 58 65 72 75 75 77 78 78 86 81 77 74 69 67
94 100 100 100 100 100 100 98 77 66 58 54 45 50 53 57 52 56 50 47 45 43 43 47 51 54 58 59 59 61 62 61 56 55 57 63 60 62 62 60 59 59 55
100 100 100 100 100 97 90 68 68 58 53 47 49 51 55 56 54 57 56 52 47 46 50 54 58 60 64 67 70 70 71 72 74 72 61 54 50 48 47 44 43 38 37
100 100 100 97 96 81 72 59 61 50 50 52 53 53 57 57 61 62 57 56 58 61 57 55 59 63 63 63 64 66 67 64 59 49 43 36 33 32 30 29 27 29 37
100 100 94 81 82 73 62 56 51 53 52 54 58 60 62 68 69 69 67 66 66 61 56 56 57 59 60 62 65 64 60 52 42 44 52 63 65 62 54 42 33 32 28
91 85 84 85 66 70 53 53 54 57 63 63 66 71 75 73 76 73 70 68 66 59 57 59 59 58 60 64 64 60 45 39 40 51 61 66 64 62 52 30 17 14 14

GFSMA_250_rhum_081.txt.gz
RH
44 40 37 35 34 39 44 51 51 48 47 49 52 58 63 57 54 53 41 44 45 50 61 64 57 56 63 69 59 48 64 95 95 100 100 100 96 100 100 100 100 95 88
56 54 47 42 43 52 57 57 55 51 49 56 61 64 60 61 58 55 51 48 50 65 66 63 59 67 69 64 52 52 72 100 100 100 100 100 88 100 100 100 100 100 86
75 71 56 55 63 64 61 60 58 58 62 66 63 67 60 64 63 56 55 65 74 76 69 63 68 76 62 54 50 59 90 97 100 100 100 100 99 100 100 100 100 100 99
78 78 80 78 76 73 72 68 71 75 74 71 82 66 71 85 71 60 68 76 78 75 64 74 85 65 52 48 52 65 89 100 85 93 100 100 100 90 100 100 100 100 95
96 91 92 86 76 75 74 78 82 86 79 90 80 81 80 69 71 78 75 88 79 76 80 87 72 58 46 48 58 71 82 95 100 100 100 100 100 100 100 100 100 100 98
97 90 81 78 78 82 84 89 87 82 91 87 80 84 82 88 84 95 93 83 83 82 96 75 61 46 45 51 62 80 86 94 100 100 100 98 100 100 100 100 100 100 100
98 94 86 84 83 85 86 88 99 100 96 81 89 84 92 93 96 91 89 84 82 99 83 62 49 42 43 62 75 91 99 100 100 100 100 100 100 100 100 100 100 100 100
95 91 94 93 85 93 96 100 100 100 100 99 98 89 94 99 93 90 84 87 98 79 64 54 44 45 56 66 87 76 70 89 100 100 100 100 100 100 97 100 100 100 100
100 100 100 100 100 100 100 100 100 100 100 100 100 87 84 92 96 86 78 93 80 64 54 42 49 51 47 48 35 38 45 84 100 100 100 100 100 100 100 100 100 100 100
100 100 100 100 100 100 100 100 100 95 95 98 89 87 89 87 82 83 100 84 65 56 42 49 37 27 22 25 29 34 36 54 100 94 100 100 100 100 100 100 100 97 100
100 100 100 100 100 100 100 100 100 100 99 91 94 96 84 87 89 87 84 68 56 43 37 31 20 19 18 24 30 32 33 32 37 62 100 100 100 100 100 99 100 100 100
100 100 100 100 100 100 100 100 100 100 99 100 100 98 93 89 94 87 69 54 38 31 31 26 30 29 32 35 32 29 32 31 39 47 94 100 100 100 100 100 100 100 100
100 100 100 100 100 100 100 100 100 100 100 100 100 100 97 95 85 74 57 37 33 42 33 29 26 30 34 30 27 26 29 24 38 79 100 100 100 100 100 100 100 100 100
100 100 100 100 100 99 99 100 100 100 100 100 94 88 97 87 73 58 35 39 32 39 31 30 30 33 34 28 23 23 23 19 29 52 100 100 100 100 100 100 100 100 100
99 99 98 100 98 100 95 100 98 100 96 86 89 86 84 72 54 36 49 46 46 33 35 34 38 38 35 28 21 20 17 12 14 18 90 100 100 100 100 100 100 100 100
100 100 100 100 100 100 100 100 100 93 91 94 96 87 71 52 41 59 63 58 44 39 34 42 41 38 36 35 29 21 20 12 21 29 86 100 100 100 100 100 100 100 100
100 100 100 100 100 100 100 100 97 100 87 97 84 77 58 55 71 74 74 51 46 40 39 46 44 38 38 39 39 32 26 24 24 47 82 93 100 100 100 100 100 100 100
93 99 100 100 100 100 98 100 94 98 96 95 72 60 66 80 92 76 55 53 44 42 47 47 47 42 39 38 41 46 50 64 52 43 67 99 100 100 100 100 100 100 100
86 83 82 84 87 93 96 94 95 89 88 63 63 81 88 94 75 59 54 47 45 48 51 52 49 46 42 41 36 37 40 47 51 53 57 67 91 100 100 100 100 100 100
27 37 45 59 93 89 99 89 89 71 66 78 96 100 94 78 60 57 49 47 46 50 53 54 52 50 44 42 43 42 40 40 42 47 51 57 65 71 79 87 94 100 100
42 50 74 88 100 80 85 97 74 80 96 100 100 90 76 64 61 49 48 49 47 53 57 58 54 50 48 47 47 50 51 56 61 61 58 54 51 48 48 56 64 69 72
63 80 70 74 89 88 68 82 100 100 100 100 92 73 69 66 50 50 53 52 57 61 60 62 56 54 52 51 51 53 52 55 59 56 54 57 55 53 52 52 50 43 38
69 67 82 84 93 78 82 100 100 100 100 97 74 70 67 52 50 58 57 60 63 62 66 65 61 61 63 58 56 53 55 56 53 54 54 56 46 39 38 37 38 40 42
75 88 91 86 71 100 100 100 100 100 88 75 72 69 56 53 67 63 68 64 67 68 67 71 76 72 65 60 56 55 56 56 54 55 55 52 48 44 43 45 50 52 57
86 98 84 100 100 100 100 100 97 79 79 74 62 55 56 70 69 70 78 79 77 82 82 78 73 69 64 60 58 58 62 60 57 56 57 54 44 40 34 35 39 45 51
100 100 100 100 100 100 99 86 88 81 75 55 53 57 73 78 73 82 90 89 85 82 79 77 70 66 64 62 61 63 59 56 55 57 55 47 40 34 31 35 39 42 45

GFSMA_250_rhum_084.txt.gz
RH
64 62 59 60 57 50 48 46 43 43 41 52 58 62 66 70 65 62 50 48 49 56 64 71 67 74 72 72 59 62 64 56 45 51 61 98 100 100 100 100 100 95 100
69 70 67 67 66 59 60 58 56 50 56 61 62 70 72 68 70 56 54 53 57 70 81 76 78 81 76 64 70 66 59 45 44 53 65 100 100 100 100 100 100 100 97
95 90 89 85 74 67 73 72 70 75 74 67 68 73 72 74 60 59 66 66 77 82 85 81 83 74 68 64 70 62 51 43 48 64 74 97 100 100 100 96 100 100 100
100 100 95 85 80 83 77 78 86 82 72 70 72 78 76 65 72 78 78 88 87 89 79 75 76 70 69 68 65 55 43 40 46 54 77 90 88 86 100 100 100 100 100
98 95 88 88 97 99 96 92 88 82 80 78 82 80 76 82 82 83 81 90 86 76 74 79 76 72 70 68 60 46 39 40 57 65 69 76 97 100 100 100 100 100 100
100 100 100 100 100 100 100 95 94 86 80 80 80 80 89 91 90 88 88 85 80 75 77 81 77 72 71 65 52 39 38 48 49 42 51 66 85 100 100 100 100 100 100
100 100 100 100 100 100 99 98 95 85 86 86 84 90 94 99 95 86 93 89 86 85 85 77 79 74 68 55 39 40 35 32 28 37 38 44 50 80 83 71 100 100 100
100 100 100 100 96 99 100 86 87 86 87 80 90 100 100 100 100 97 100 93 87 83 81 79 74 68 57 40 38 32 25 27 29 36 42 66 60 79 100 94 92 87 94
100 100 100 100 100 98 94 92 82 93 100 100 100 100 100 100 100 100 98 88 81 82 77 74 69 60 44 37 23 23 25 26 30 32 42 50 59 67 100 100 100 100 100
100 100 100 98 95 96 94 100 100 100 100 100 100 100 99 93 99 96 100 91 89 86 82 74 61 48 38 30 27 26 28 32 35 36 29 29 42 65 97 100 100 100 100
100 100 100 100 100 100 100 100 100 100 100 100 100 100 100 97 100 96 89 99 95 94 84 75 59 45 34 31 31 30 31 34 34 32 31 27 31 37 67 100 100 100 100
100 100 100 100 100 100 100 100 100 100 100 100 100 100 98 100 98 94 98 100 94 93 79 60 47 46 40 30 33 32 35 35 28 27 32 26 26 35 40 69 98 100 100
100 100 100 100 100 100 100 100 100 100 100 100 100 100 100 100 100 100 100 94 92 76 68 52 57 42 28 34 34 34 38 34 29 22 22 24 22 24 30 41 50 100 100
100 100 100 100 100 100 100 100 100 100 100 100 100 100 100 100 100 100 99 86 69 80 58 53 54 39 34 36 36 38 42 36 33 24 20 20 16 16 32 46 56 89 100
100 100 100 100 100 100 100 100 100 100 100 100 100 100 100 100 100 100 83 75 64 51 43 55 50 39 39 38 43 47 46 40 40 36 30 23 27 23 34 61 69 85 100
100 100 100 100 100 100 100 100 100 100 100 100 100 100 100 100 96 87 84 72 53 46 60 65 45 44 42 43 47 50 49 46 46 40 34 36 37 38 37 51 94 100 100
100 100 100 100 100 100 100 100 100 100 100 100 100 99 94 84 92 90 76 62 64 74 72 54 46 43 41 46 52 53 53 51 52 46 54 56 52 50 48 52 55 95 100
100 100 100 100 100 100 100 100 100 100 94 91 87 83 87 90 90 82 72 62 83 83 76 50 44 42 45 48 54 57 57 56 50 47 44 46 49 54 56 54 51 60 73
95 85 70 59 48 54 72 72 61 51 53 55 70 88 82 95 75 87 74 87 89 79 57 47 41 44 48 54 57 62 62 56 50 49 48 50 48 47 47 49 58 65 65
22 21 21 24 33 35 38 47 48 45 59 76 83 82 96 80 97 84 93 91 87 64 53 43 47 50 57 63 67 66 63 57 57 55 55 57 54 55 54 54 53 54 57
20 22 27 27 33 48 42 47 47 52 76 76 98 94 91 96 90 100 94 90 70 60 46 49 55 66 66 68 69 66 63 64 64 59 55 56 54 53 53 53 53 56 60
19 36 42 24 27 24 44 57 74 75 86 87 100 83 100 89 100 93 78 74 68 48 50 62 69 65 73 75 72 71 73 66 62 62 60 56 51 53 53 54 53 54 52
23 22 24 26 36 56 59 69 75 90 98 98 81 100 100 100 89 77 79 66 50 52 69 72 76 79 74 71 75 72 64 60 57 54 52 53 53 52 52 48 42 41 40
20 26 34 41 62 69 89 90 92 100 90 98 100 100 100 87 83 72 61 52 56 75 74 80 82 80 80 78 69 65 65 60 56 53 54 54 56 50 45 43 39 37 36
28 35 58 64 79 83 86 96 100 88 100 100 100 94 90 89 72 58 60 59 77 79 81 80 81 80 73 69 72 67 61 61 55 51 56 61 49 44 44 45 34 28 30
54 56 65 75 80 83 85 89 100 100 100 98 92 98 84 70 60 63 66 83 82 82 83 82 83 73 75 78 70 65 61 61 54 55 60 66 49 44 43 28 26 29 34

GFSMA_250_rhum_090.txt.gz
RH
60 60 63 66 63 62 62 65 67 68 70 69 67 58 54 60 68 74 62 72 78 69 68 70 64 74 67 71 69 66 68 60 49 45 52 51 50 40 32 35 34 39 63
83 80 79 76 67 67 71 77 76 80 79 78 69 61 66 84 85 72 84 86 79 73 77 68 68 65 71 68 70 66 64 53 49 49 52 52 47 32 28 26 22 26 42
95 95 96 97 94 89 92 95 90 93 89 88 71 81 84 100 85 97 93 81 79 76 71 69 68 67 70 70 72 65 56 52 55 52 57 52 41 29 26 19 18 26 33
94 98 98 95 94 94 100 100 100 100 100 84 99 100 100 99 100 97 90 83 76 77 70 68 69 73 72 80 66 65 57 57 63 61 59 48 32 24 24 20 24 26 31
89 90 93 97 97 100 98 96 94 89 95 100 100 100 100 100 99 99 83 78 79 74 71 67 65 73 81 72 64 63 70 72 61 65 53 32 25 20 20 29 32 32 35
96 98 95 100 100 99 90 96 96 100 100 100 100 100 100 100 100 87 92 83 73 71 68 68 71 80 77 72 66 70 74 80 76 60 41 31 24 22 25 32 38 40 39
90 84 89 98 100 99 99 100 100 100 100 100 100 100 100 100 90 91 89 72 70 74 71 74 81 76 86 72 78 87 85 72 66 46 48 35 29 23 29 31 34 40 48
100 100 100 100 100 100 100 100 100 100 100 100 100 100 100 100 100 90 86 75 78 76 82 83 87 85 81 86 87 92 88 78 47 33 37 37 28 26 28 31 37 40 37
100 100 100 100 100 100 100 100 100 100 100 100 100 100 100 100 98 100 94 83 84 87 86 89 88 96 87 96 95 93 82 57 39 39 33 29 32 28 28 35 41 38 38
100 100 100 100 100 100 100 100 100 100 100 100 100 100 100 100 100 100 100 100 97 96 100 99 100 95 100 96 91 85 59 38 46 43 32 27 34 31 32 37 37 36 34
100 100 100 100 100 100 100 100 100 100 97 100 100 100 100 100 96 100 100 100 99 100 100 100 100 100 96 92 78 68 46 52 50 49 40 35 33 34 34 36 35 31 28
100 100 100 100 100 100 100 100 100 100 100 100 100 100 100 100 100 100 100 100 100 100 100 100 100 99 88 72 65 67 63 56 57 54 45 37 33 34 34 34 33 32 28
100 100 100 100 100 100 100 100 100 100 100 100 100 100 100 100 100 100 99 100 100 100 100 100 100 83 57 60 77 60 63 66 60 49 49 37 36 38 37 39 38 32 28
100 100 100 100 100 100 100 100 100 100 100 100 100 100 100 100 100 100 100 100 100 100 100 98 70 52 65 81 59 67 63 62 53 54 41 38 43 49 49 48 44 38 29
100 100 100 100 100 100 100 98 100 100 100 100 100 100 100 100 100 100 100 100 100 100 100 67 45 64 66 60 68 70 67 54 57 52 42 43 48 49 56 56 52 48 45
90 100 100 100 100 100 100 100 100 100 100 100 100 100 100 100 100 100 100 100 100 97 38 39 57 63 60 65 76 70 60 54 58 49 43 50 54 60 59 55 52 50 47
99 94 100 100 100 100 100 100 100 100 100 100 100 100 100 100 100 100 100 100 80 35 46 52 67 71 71 79 78 67 56 50 50 44 50 58 62 61 60 56 48 49 50
52 77 85 100 100 100 100 100 100 100 100 100 100 100 100 100 100 100 67 33 28 46 55 58 70 80 82 83 77 63 55 58 47 51 62 67 70 66 58 52 53 52 49
23 26 45 94 100 100 100 100 100 100 100 100 100 100 100 100 69 38 37 38 45 54 62 69 77 86 86 87 71 59 58 50 51 65 69 70 67 63 56 56 54 49 48
24 26 30 36 47 64 93 100 100 100 99 97 96 89 69 41 32 38 46 67 58 65 70 79 88 91 89 80 71 60 52 55 69 68 72 67 62 58 56 52 48 49 53
24 24 30 44 49 41 56 84 80 66 56 46 41 37 39 32 50 45 62 57 67 71 73 92 89 98 93 92 67 57 58 70 66 76 70 61 59 57 56 50 50 54 52
22 24 26 30 33 35 35 36 33 33 33 30 30 36 31 36 50 56 48 56 66 77 92 98 95 83 94 75 60 61 66 65 78 74 70 66 61 57 52 51 52 52 47
21 21 21 22 23 22 24 25 25 26 28 32 32 29 40 47 48 43 66 66 82 94 99 94 82 97 76 71 65 68 77 91 80 71 66 64 60 58 54 52 52 53 46
21 21 22 22 22 22 21 23 26 28 28 29 40 38 32 33 52 62 72 91 96 99 95 100 80 71 75 69 68 90 93 83 76 71 70 65 62 58 56 54 54 51 45
21 19 21 21 22 22 23 21 21 23 29 29 23 23 30 45 55 90 87 92 85 96 100 100 72 80 73 67 72 86 86 79 76 74 72 65 63 59 58 59 59 53 49
21 20 20 21 22 21 21 22 24 24 22 25 29 40 64 73 92 89 91 95 100 100 86 77 80 78 70 69 77 91 81 80 77 76 80 77 67 62 60 56 53 49 51

GFSMA_250_rhum_093.txt.gz
RH
75 71 67 65 58 58 60 62 62 61 64 62 64 69 72 74 76 69 66 100 100 84 92 100 85 65 61 58 56 56 52 53 50 46 46 49 52 57 54 27 24 23 18
87 89 86 81 72 64 67 71 74 72 68 72 81 85 86 81 83 65 98 100 100 88 100 94 76 60 60 57 58 55 55 52 54 48 50 61 58 62 41 26 26 23 17
88 93 97 95 91 86 91 92 93 96 96 96 96 98 100 97 66 94 100 98 92 100 98 83 69 60 60 60 61 56 52 59 54 59 59 62 64 58 24 27 25 20 19
93 92 92 95 92 94 99 100 100 99 99 100 100 90 76 86 100 97 100 87 100 100 94 83 72 62 63 61 60 60 62 56 59 60 66 67 56 35 25 29 26 23 24
80 88 95 97 96 92 93 100 100 100 100 100 96 92 99 100 95 100 100 100 98 95 93 80 69 68 66 65 69 65 67 65 62 63 68 68 43 31 28 31 25 26 26
76 80 84 90 93 99 100 98 98 100 100 100 99 100 100 99 98 99 100 100 98 87 77 69 69 66 65 77 73 64 66 68 73 79 76 54 26 30 30 30 25 25 30
100 100 100 87 86 88 84 82 82 78 98 100 100 100 99 100 100 100 96 90 78 84 67 69 74 71 78 72 68 79 68 72 70 73 65 32 34 31 37 26 24 30 33
86 100 100 100 100 100 100 100 100 100 100 100 100 100 100 100 100 97 87 91 86 85 84 78 76 78 75 72 65 80 80 75 77 66 32 33 31 38 33 23 26 32 35
99 97 100 100 100 100 100 100 100 100 100 100 100 100 100 100 100 88 95 100 94 93 84 85 80 75 68 72 83 79 79 79 80 42 27 32 37 39 32 25 26 32 36
100 100 100 100 98 100 100 100 91 89 91 100 100 100 100 100 100 100 100 100 100 97 87 96 84 78 80 76 89 85 85 84 58 32 32 30 43 41 28 29 29 34 39
100 100 100 100 95 97 100 100 94 100 99 89 73 87 100 100 100 100 100 100 100 100 100 96 96 89 88 92 91 93 82 68 34 41 42 48 46 38 31 31 35 37 39
100 99 100 100 100 100 88 88 100 99 100 100 100 100 100 100 100 100 100 100 100 100 100 100 89 92 95 90 97 82 63 32 38 46 50 52 54 38 34 36 37 39 41
100 100 100 100 100 97 84 89 100 100 100 100 100 100 100 100 100 100 100 100 100 100 100 100 100 96 98 96 91 67 33 39 43 50 58 61 53 42 39 37 40 44 45
100 100 100 100 98 98 97 89 88 100 100 100 100 100 100 100 100 100 100 100 100 100 100 100 97 100 97 99 72 35 39 49 50 61 64 60 49 44 40 40 45 48 50
100 100 100 100 100 100 100 88 100 100 100 100 100 100 100 100 100 100 100 100 100 99 100 100 99 100 99 79 45 36 42 59 65 64 63 55 49 46 42 48 50 52 50
100 98 100 100 100 100 100 100 100 100 100 100 100 100 100 100 100 100 100 100 100 100 100 100 100 99 78 51 38 47 50 63 68 69 63 56 52 43 48 53 55 50 47
100 100 96 99 97 100 100 100 100 100 100 100 100 100 100 100 100 100 100 100 100 100 100 100 87 59 50 37 49 53 58 62 68 75 68 60 51 50 57 55 56 50 51
100 100 100 99 100 100 100 100 94 100 100 100 100 100 100 100 100 100 100 100 100 100 96 86 54 41 35 48 58 69 64 69 79 68 61 54 53 60 59 61 60 52 51
53 75 85 93 95 100 100 100 100 100 100 100 100 100 100 97 100 100 100 88 95 86 76 49 44 36 49 52 68 71 69 86 81 76 63 61 67 62 64 66 57 57 54
22 24 24 24 24 25 29 34 33 29 30 32 32 38 45 62 70 68 60 58 51 64 46 40 33 43 48 61 75 74 88 87 79 60 67 69 66 70 71 60 59 58 55
22 23 24 25 25 25 25 26 26 26 27 31 35 57 52 51 62 62 45 47 45 36 39 39 40 44 68 84 79 82 92 74 73 74 70 65 75 73 70 65 65 60 56
22 23 22 23 24 23 23 25 26 25 26 31 37 33 37 44 43 42 38 35 39 37 37 41 42 78 82 85 89 100 88 82 71 70 67 66 76 76 71 68 67 63 60
23 23 23 24 24 24 24 26 27 28 32 32 33 39 39 36 30 32 32 32 34 36 37 41 51 67 80 90 94 93 80 70 71 70 63 76 82 77 72 70 68 66 63
20 20 21 22 24 25 24 25 25 24 25 28 33 32 33 30 32 34 29 30 30 31 42 48 66 76 89 100 92 78 79 74 71 64 64 93 84 78 74 72 67 68 64
18 19 20 20 21 22 22 22 22 24 30 34 38 38 30 28 24 24 27 26 37 50 59 72 83 95 98 95 81 78 78 77 70 62 87 89 85 76 76 74 75 69 63
15 16 17 19 20 20 21 21 22 25 28 30 31 26 24 25 28 26 30 40 56 70 74 94 99 100 96 84 83 78 84 76 64 84 89 84 78 74 77 76 72 68 65

GFSMA_250_rhum_096.txt.gz
RH
64 67 64 65 66 65 65 66 62 65 78 71 70 73 65 66 68 81 83 98 93 86 100 98 93 95 98 73 71 61 50 51 45 46 46 45 47 50 54 63 37 20 22
61 66 69 70 80 78 80 81 78 70 65 68 73 78 82 86 83 91 97 64 88 100 100 100 100 85 81 75 57 50 51 52 49 46 50 46 51 54 57 58 24 20 21
58 63 73 78 80 88 89 96 98 97 92 96 100 93 85 87 99 84 69 97 98 100 98 99 90 91 76 56 51 49 53 56 52 51 47 49 54 60 58 38 21 23 22
68 64 73 79 91 95 95 94 97 96 98 100 97 91 95 96 83 76 94 100 100 90 100 100 86 63 60 67 71 61 55 58 56 49 55 60 66 64 50 23 21 25 25
80 74 75 77 81 85 91 96 97 92 89 90 94 96 94 87 91 90 100 99 89 99 100 95 82 67 69 72 72 68 69 74 56 54 55 63 73 59 34 22 22 25 25
100 98 91 86 83 82 81 80 77 71 75 77 79 86 76 78 91 88 90 96 89 100 90 79 71 84 85 89 78 74 75 75 70 59 65 78 77 53 23 25 23 25 25
100 100 100 100 100 100 100 100 100 100 100 100 100 100 100 100 93 97 96 79 95 94 86 73 85 92 95 97 90 91 80 80 69 64 86 76 74 42 24 27 24 26 25
100 100 100 100 90 80 80 97 99 100 100 100 96 91 94 86 90 76 81 84 77 84 74 76 90 99 100 99 98 86 91 87 82 71 75 84 63 30 27 30 31 27 28
99 99 100 100 100 100 94 87 83 76 75 88 95 87 85 84 84 81 79 81 83 84 87 95 92 94 100 90 94 100 99 86 83 83 70 67 45 29 28 30 33 29 27
100 100 100 100 100 99 99 100 84 81 82 76 86 73 76 74 66 88 99 89 82 99 95 82 89 97 98 99 100 96 95 94 70 81 77 49 29 27 31 36 35 30 30
100 100 100 100 100 100 100 100 100 100 86 80 69 70 77 91 97 86 99 96 92 88 88 94 97 99 100 100 91 95 90 86 86 89 64 33 27 27 31 36 38 36 34
100 100 100 100 100 100 100 100 100 100 100 98 69 62 81 75 86 86 76 79 82 95 100 100 100 100 100 99 100 98 99 80 94 62 44 33 30 36 33 35 40 37 37
99 100 100 100 100 100 100 100 100 100 100 100 93 64 63 65 86 79 96 96 98 100 100 100 100 99 100 100 98 89 85 74 62 56 38 36 37 42 39 45 39 39 40
69 96 100 100 100 100 99 100 100 100 100 99 99 100 91 97 100 99 100 100 100 100 100 100 100 100 100 100 97 86 67 57 49 44 36 37 46 38 43 47 48 43 44
86 88 100 100 100 100 100 97 100 100 100 100 100 100 100 100 100 100 100 100 100 100 100 100 100 99 100 100 83 59 65 47 50 38 40 40 46 43 56 54 45 44 50
50 97 100 100 100 100 100 98 100 99 100 100 100 100 100 100 100 100 100 100 100 100 100 100 100 100 92 63 65 67 50 41 43 42 41 52 48 64 66 54 46 52 56
33 54 68 91 100 100 100 100 100 100 100 100 100 100 100 100 100 100 100 100 100 100 100 100 99 71 47 36 38 46 42 51 39 39 47 51 65 75 64 49 53 58 64
26 26 28 42 57 100 100 100 100 100 100 100 100 100 100 100 100 100 100 100 100 100 100 45 42 49 48 35 42 39 44 41 40 48 52 65 78 70 56 56 55 62 71
24 22 23 24 24 32 74 100 100 100 100 100 100 100 100 100 100 100 100 98 72 37 38 36 58 39 32 38 40 41 38 41 40 55 66 81 70 63 57 59 59 64 72
24 22 23 22 23 24 25 33 70 90 100 100 100 100 100 100 92 59 36 29 33 39 35 41 36 36 37 35 35 34 37 41 58 65 77 79 72 57 65 64 58 71 75
23 23 23 23 22 22 23 24 26 28 33 44 51 49 37 31 30 29 31 32 33 39 35 44 43 33 35 29 30 39 44 49 72 80 88 71 59 68 68 62 66 79 75
23 24 23 22 22 22 23 24 24 24 25 26 28 28 28 28 28 29 31 32 32 38 33 39 40 33 28 27 34 44 58 81 84 89 73 67 67 72 69 67 85 84 78
22 22 21 20 20 22 23 24 26 27 27 28 29 29 28 29 29 30 32 32 41 47 48 43 31 25 27 33 53 58 78 95 96 84 74 71 75 75 68 82 88 80 71
21 22 23 23 23 24 23 23 23 24 26 27 27 29 28 28 28 27 29 36 44 68 58 33 25 30 39 48 61 82 92 98 91 74 73 76 80 69 78 86 81 73 70
16 16 17 18 19 20 22 23 24 24 23 25 27 28 30 31 31 31 34 47 52 58 49 25 32 38 52 68 86 92 92 93 73 76 78 84 73 77 88 82 75 70 78
16 16 16 17 18 18 18 18 19 20 22 23 24 27 27 27 28 30 33 40 42 36 28 32 41 57 73 86 86 90 92 77 84 77 85 75 72 91 82 79 74 78 87

GFSMA_250_rhum_099.txt.gz
RH
76 66 52 50 52 55 63 65 65 72 72 74 76 74 70 72 70 74 78 77 81 93 96 69 88 86 78 77 74 72 62 50 49 50 52 54 62 62 60 58 57 49 22
88 80 70 61 58 56 66 68 75 84 84 84 88 90 89 87 93 94 92 92 100 100 97 98 84 83 74 75 69 72 57 51 55 57 63 60 67 74 68 54 55 37 22
100 98 91 80 68 68 64 76 79 82 86 87 85 79 79 90 100 92 76 93 94 96 100 87 91 90 78 80 68 58 53 54 57 62 58 60 70 69 56 65 54 31 23
100 100 100 91 83 74 75 77 82 93 92 87 92 86 71 61 59 64 74 72 71 76 77 84 87 80 74 62 74 64 61 56 61 69 70 72 75 63 64 56 44 25 23
100 100 100 100 95 86 83 84 87 85 85 81 80 74 80 82 77 82 86 98 98 79 80 79 72 70 71 76 74 69 60 69 72 63 73 75 60 57 52 47 31 25 23
69 84 100 100 100 100 100 99 94 91 88 90 84 91 100 99 100 87 100 96 94 81 67 71 66 77 84 83 73 72 70 71 79 79 82 71 72 58 59 34 28 25 24
68 62 93 100 100 100 100 100 100 98 68 66 90 100 90 42 64 80 84 76 68 66 64 72 67 75 68 71 69 77 82 76 68 80 83 88 75 55 34 33 28 24 25
70 75 100 100 100 100 100 100 100 100 100 100 80 77 64 58 62 66 68 70 56 76 63 55 54 55 61 65 81 74 83 84 87 86 93 77 75 40 32 34 29 25 26
91 100 100 100 100 100 100 100 100 99 100 100 100 100 94 95 95 86 83 78 65 54 46 38 44 51 66 79 81 88 96 95 87 91 79 73 52 33 42 35 31 26 26
100 100 100 100 100 100 100 100 100 85 86 84 75 78 93 80 64 60 72 54 45 47 37 56 68 81 83 95 97 91 91 94 98 99 68 65 30 39 33 34 35 27 24
100 100 100 100 100 100 100 100 100 100 100 100 88 86 83 74 72 68 64 46 46 51 54 72 93 100 94 98 100 100 97 100 97 74 72 38 42 32 28 33 34 35 27
100 100 100 100 100 100 100 100 97 100 100 100 100 100 100 100 99 100 79 66 73 68 84 95 100 100 100 100 100 100 100 95 84 71 80 36 27 26 32 34 35 32 32
94 93 96 100 100 100 100 100 100 100 100 100 100 100 100 100 96 88 99 97 100 100 100 100 100 100 100 100 100 100 100 100 100 90 30 28 26 28 35 35 37 32 35
29 64 84 99 95 91 100 100 100 100 100 100 100 100 100 100 99 93 100 100 100 100 100 100 100 100 100 100 100 100 100 96 70 27 28 26 30 33 38 45 39 40 41
19 20 44 45 64 77 91 100 100 100 100 100 100 100 100 100 100 100 100 100 100 100 100 100 100 100 100 100 100 100 100 74 30 29 29 28 31 34 45 50 42 50 51
22 20 20 21 23 22 46 93 98 100 99 100 100 100 100 100 100 100 100 100 100 100 100 100 100 100 100 100 100 100 72 31 28 29 28 29 30 38 48 51 54 60 58
25 23 22 22 22 23 26 60 90 96 100 100 100 100 100 100 100 100 100 100 100 100 100 100 100 100 100 100 100 71 35 30 28 28 29 32 38 48 52 58 64 63 58
27 26 25 24 24 23 23 26 45 71 79 87 97 100 100 100 100 100 100 100 100 100 100 100 100 100 100 100 50 36 32 29 31 33 31 37 50 62 62 70 73 68 54
28 28 28 26 22 24 24 25 25 25 30 30 36 47 74 82 91 97 100 98 100 100 100 100 100 100 92 40 34 36 33 36 37 33 34 52 61 64 78 82 75 61 65
23 25 27 25 28 26 26 27 28 27 28 30 29 30 34 35 32 33 46 88 89 100 100 81 59 42 36 34 35 34 35 38 35 33 42 62 65 83 89 83 69 66 71
22 22 22 22 24 26 26 28 29 28 29 29 30 30 30 30 30 31 33 34 34 35 36 39 35 33 35 34 34 30 40 44 39 39 51 67 79 96 96 75 69 75 71
23 22 21 22 22 22 24 25 24 24 28 30 31 30 29 30 31 30 32 32 31 34 33 35 36 35 33 35 34 37 42 41 31 46 60 83 92 98 82 75 76 77 68
24 24 24 24 24 24 24 23 23 24 24 25 26 28 30 30 31 31 33 34 33 33 35 37 34 34 34 35 34 44 56 37 40 62 83 92 98 85 76 77 80 75 70
19 21 22 22 23 24 24 24 24 25 26 26 26 26 27 28 29 31 31 32 33 32 34 38 36 38 36 33 54 55 40 46 62 80 88 96 93 83 76 78 80 72 82
18 18 18 18 18 18 18 19 21 24 27 27 28 28 29 29 30 31 33 32 31 33 35 38 35 32 31 46 55 44 46 75 89 94 97 94 94 80 79 82 76 80 82
16 16 16 17 17 17 17 16 17 17 18 19 20 21 21 23 25 28 29 31 31 32 30 30 29 30 38 41 53 56 78 80 92 96 96 92 85 81 83 80 78 85 81

GFSMA_250_rhum_102.txt.gz
RH
92 77 70 74 82 72 65 56 56 52 50 54 56 60 71 77 78 80 80 76 77 93 94 77 62 64 61 70 73 70 68 58 50 57 56 48 48 45 48 58 60 47 25
100 98 98 95 91 92 79 77 70 67 68 61 59 70 76 80 82 80 72 66 74 64 57 58 66 56 61 70 74 62 62 52 47 49 53 50 47 51 48 64 65 48 25
100 100 100 100 100 100 99 94 83 79 76 74 75 72 78 78 75 63 64 69 83 89 92 88 75 73 70 66 64 63 53 47 54 49 59 55 52 55 56 82 60 45 25
100 97 94 98 100 99 100 100 100 92 83 80 78 76 78 77 72 74 75 91 100 100 78 67 69 75 77 73 63 56 40 52 55 53 54 53 57 75 77 70 43 41 28
100 89 91 91 87 99 100 100 100 100 100 100 98 96 95 85 79 78 87 100 81 56 50 49 52 65 69 61 61 42 46 47 53 62 68 70 73 92 77 71 48 28 29
100 100 99 93 100 100 100 100 100 100 100 100 100 100 97 76 72 67 74 63 70 72 62 71 70 70 66 64 53 51 48 56 68 71 68 78 79 82 85 66 64 28 27
100 100 97 80 96 100 97 100 100 100 100 100 100 100 96 82 64 58 63 73 78 89 89 88 95 71 58 55 60 53 66 74 66 69 70 77 82 86 78 71 62 28 25
100 100 94 87 87 85 100 100 100 100 100 100 95 87 95 100 100 92 86 100 100 98 100 94 72 58 54 53 61 63 78 74 92 87 77 92 81 86 89 86 32 27 26
100 100 100 100 100 100 100 100 100 100 100 100 98 87 77 84 77 90 98 94 75 68 73 59 51 46 56 64 71 80 82 85 85 85 98 97 89 79 63 72 28 25 26
100 100 100 100 100 100 100 100 100 100 99 80 82 83 100 99 94 84 80 64 56 50 58 45 50 64 67 77 85 91 88 99 99 100 100 88 86 66 70 40 29 26 24
100 100 100 100 100 100 100 100 100 100 99 94 100 100 84 66 56 60 54 48 56 75 70 76 100 100 100 100 100 100 100 100 100 100 100 99 76 71 86 30 27 28 28
100 100 100 100 100 100 100 100 100 100 100 100 100 97 100 99 100 88 100 100 100 100 100 99 100 99 100 100 100 100 100 100 100 100 100 99 92 69 58 30 27 28 31
97 97 100 88 98 100 100 100 100 100 100 100 100 100 100 100 100 100 100 100 100 100 100 100 100 100 100 100 100 100 100 100 100 100 100 100 84 97 34 32 30 31 32
85 96 98 83 100 100 100 100 100 100 100 100 100 100 100 100 100 100 100 100 100 100 100 100 100 100 100 100 100 100 100 100 100 100 100 97 93 51 33 32 31 32 35
69 72 76 70 62 59 57 75 98 100 100 100 100 100 100 100 100 100 100 100 100 100 100 100 100 100 100 100 100 100 100 100 100 100 94 100 57 35 33 33 34 35 39
29 29 32 39 39 42 36 39 46 39 38 52 71 96 100 100 100 100 100 100 100 100 100 100 100 100 100 100 100 100 100 100 100 100 98 56 37 34 34 36 40 41 41
39 34 33 36 33 27 28 25 28 26 24 23 24 26 32 52 59 59 66 96 100 100 100 100 100 100 90 100 100 100 100 86 98 87 49 38 36 36 33 39 44 43 51
36 38 37 37 34 34 33 30 26 27 28 24 23 23 24 25 28 38 63 83 100 95 80 95 100 100 83 91 80 71 54 47 48 52 38 38 37 35 39 50 38 45 54
26 27 30 34 36 35 34 34 33 32 27 25 26 26 26 28 29 33 36 39 41 47 53 78 85 61 62 50 39 39 37 40 40 39 39 36 38 39 52 43 47 52 73
24 24 23 24 26 30 30 30 31 30 30 28 27 25 28 30 32 33 35 40 44 40 40 37 47 44 39 39 37 37 36 41 41 41 36 39 37 45 55 52 56 67 82
25 24 22 22 21 23 25 26 27 28 27 26 26 30 30 27 28 28 31 33 35 37 37 36 38 38 39 39 38 37 37 43 40 42 37 40 43 56 59 61 73 77 84
28 27 25 24 23 22 22 23 23 24 24 24 24 25 25 25 27 28 29 32 33 36 35 35 39 41 38 40 36 37 40 43 43 42 41 44 61 62 68 81 81 84 87
28 27 27 27 25 24 23 23 23 23 24 24 25 26 26 27 28 28 28 30 31 33 32 34 35 37 36 38 41 39 42 39 38 37 43 63 72 69 77 88 85 88 95
24 24 24 25 25 25 24 23 24 25 24 24 24 26 27 28 28 28 30 30 32 33 32 34 34 37 38 38 40 42 38 35 34 38 59 79 72 76 86 90 94 100 94
20 19 20 20 18 18 17 17 16 15 15 15 16 18 19 20 26 30 28 29 28 31 32 33 32 34 35 36 37 34 34 33 36 53 69 68 79 80 82 94 98 94 82
21 20 19 18 18 17 17 16 16 15 15 15 16 16 15 16 16 18 20 22 23 23 23 25 27 29 32 34 34 33 34 37 50 62 70 84 94 88 93 98 91 79 77

GFSMA_250_rhum_108.txt.gz
RH
100 92 78 77 76 75 80 87 95 84 84 87 80 77 77 74 70 70 62 60 61 60 56 54 64 74 68 69 71 70 68 53 62 60 57 63 52 52 49 50 37 47 47
100 100 100 100 100 99 100 100 94 90 90 90 84 85 79 90 82 75 76 81 84 82 66 67 71 49 49 52 49 51 47 57 55 63 60 52 51 58 53 44 46 54 52
100 100 100 100 100 100 91 88 93 96 88 87 98 100 94 88 86 83 86 95 98 64 52 37 53 45 42 48 50 48 53 60 91 86 63 50 56 50 46 51 62 56 46
100 100 99 99 100 100 100 100 100 100 87 87 97 97 100 100 100 98 99 76 63 61 60 59 60 55 52 46 56 65 70 100 95 70 53 54 56 53 70 69 63 58 46
99 100 100 98 100 100 96 100 100 100 95 100 100 100 100 100 99 95 98 99 92 86 87 76 69 65 64 72 65 74 80 67 64 57 54 48 80 76 77 70 62 62 62
99 100 100 100 100 100 100 100 100 100 99 100 100 100 100 100 100 88 90 88 82 75 68 72 73 83 74 68 61 68 70 73 51 51 63 92 100 92 75 70 69 65 62
100 100 100 100 100 100 100 100 100 100 87 80 94 100 100 100 100 94 80 72 80 78 69 69 74 83 74 68 69 78 75 61 64 78 94 100 98 100 100 82 87 84 74
100 100 100 100 100 97 99 98 100 100 100 100 100 100 100 100 96 91 77 67 59 64 68 66 71 73 79 81 85 89 78 86 94 100 97 96 99 100 96 100 93 84 65
100 100 100 100 100 94 100 100 100 100 100 100 100 100 100 100 92 86 76 58 53 58 58 67 63 79 94 98 92 81 84 100 99 100 100 100 100 100 99 98 100 100 47
100 92 75 72 84 95 100 100 100 100 100 100 97 97 91 91 75 67 54 64 68 66 64 71 80 81 93 80 88 90 100 100 97 100 100 100 95 100 98 99 100 63 57
100 95 86 94 100 100 100 100 100 100 100 78 73 88 86 86 87 63 86 93 83 81 94 96 97 100 100 100 100 100 100 100 100 100 100 100 100 100 100 95 86 62 52
74 100 100 100 100 100 100 100 100 99 79 76 68 100 100 100 100 100 100 100 100 100 100 100 100 100 100 100 100 100 100 100 100 100 100 100 100 100 100 95 64 72 52
100 100 100 100 100 94 100 90 98 100 99 95 88 98 100 100 100 100 100 100 100 100 100 100 100 100 100 100 100 100 100 100 100 100 100 100 100 98 86 66 80 61 60
100 100 100 100 100 92 99 100 100 100 100 100 100 98 82 93 84 95 84 77 71 66 100 100 100 100 100 100 100 100 100 100 86 100 100 98 92 65 82 67 59 64 55
100 100 100 100 100 100 100 100 100 100 100 100 99 98 99 98 99 100 92 83 81 69 68 90 70 72 80 80 76 98 74 82 72 86 84 76 76 93 67 63 67 52 52
100 100 100 100 99 97 100 100 100 100 98 86 84 81 70 56 69 77 65 64 58 56 53 56 58 58 47 47 42 36 41 42 43 46 59 71 68 66 74 73 75 51 46
100 100 100 100 90 100 100 100 94 89 70 69 76 79 69 69 64 52 47 44 45 43 37 35 31 36 39 39 38 36 39 40 41 49 51 53 56 47 51 52 48 41 44
100 100 96 83 74 68 61 56 56 67 73 80 79 68 66 62 56 50 48 54 54 41 36 40 42 42 42 39 36 32 31 35 37 34 36 37 36 55 49 49 41 41 39
76 82 93 77 78 72 76 61 56 60 58 59 56 69 78 63 56 46 40 40 40 37 33 36 33 31 36 31 30 32 33 37 36 35 35 38 40 48 46 44 42 41 46
98 100 99 96 88 78 65 60 60 55 49 46 44 47 46 42 39 37 34 33 32 30 28 27 28 29 29 30 31 31 33 33 34 35 37 38 38 40 41 43 45 44 51
99 100 96 85 74 56 50 50 48 44 43 42 43 41 39 36 34 31 30 28 27 27 26 26 25 25 26 27 28 30 31 31 34 35 36 36 38 40 44 47 45 50 52
80 83 71 65 59 57 54 50 49 47 42 42 38 34 31 28 27 29 28 26 26 24 23 23 24 25 27 29 29 31 31 32 34 34 37 37 39 44 42 50 44 48 52
58 56 51 46 44 41 41 42 41 41 41 38 35 30 26 25 26 24 22 21 22 23 23 24 24 25 27 27 27 27 30 34 35 36 38 37 36 37 44 43 42 48 52
44 38 35 34 35 36 37 42 42 40 39 33 26 23 21 18 18 18 17 15 15 15 15 15 16 17 18 18 18 18 20 22 25 26 27 29 31 32 35 42 46 53 58
36 33 36 42 43 39 39 35 30 37 27 26 24 21 19 17 17 16 15 15 14 14 14 14 14 14 15 16 17 17 18 20 21 23 26 29 32 32 39 46 54 58 63
47 52 52 48 41 33 32 29 36 28 26 25 24 22 19 17 16 15 15 15 15 14 14 13 13 13 14 14 15 15 19 19 22 23 29 31 36 41 47 56 62 65 76

GFSMA_250_rhum_111.txt.gz
RH
83 100 100 93 98 96 90 82 80 87 84 87 98 79 62 65 82 92 90 82 79 67 62 58 53 60 59 52 58 60 59 56 44 61 67 79 63 51 40 43 44 44 40
95 100 100 100 100 100 100 100 100 84 86 79 76 76 81 80 67 69 74 71 71 88 84 84 77 76 67 61 60 62 55 57 68 57 65 57 59 50 43 44 62 46 54
100 85 86 88 82 95 100 96 99 100 100 100 100 100 94 80 84 86 90 76 77 87 70 74 72 69 75 65 52 55 62 67 64 64 72 82 73 52 53 57 54 60 62
100 100 96 99 97 99 100 81 90 92 95 92 98 96 83 78 85 86 82 94 79 76 67 61 63 51 50 54 52 66 70 67 66 74 87 84 65 65 74 71 75 73 54
80 100 100 100 100 100 100 100 100 100 100 100 100 100 100 100 100 89 82 89 73 85 71 61 58 50 54 50 58 69 60 60 69 91 91 70 66 73 59 68 62 76 67
57 63 80 89 99 100 100 100 100 100 100 96 100 100 100 100 100 91 86 83 80 70 64 60 55 52 54 48 52 52 52 55 62 74 61 70 90 86 82 74 86 74 71
92 100 100 100 100 100 100 100 100 100 100 100 100 100 100 100 100 100 96 80 73 59 61 49 48 47 48 50 62 76 75 74 62 61 61 77 98 79 66 100 100 84 73
100 100 100 100 100 100 100 100 100 100 100 100 100 100 100 100 100 100 91 82 80 66 56 58 46 51 58 66 66 65 69 60 66 60 77 86 74 76 87 100 100 84 82
98 97 100 100 92 88 82 77 94 100 100 100 100 100 99 93 96 100 90 83 62 53 61 51 65 75 87 82 80 83 72 82 65 88 97 100 90 75 100 100 100 100 89
100 99 100 96 86 70 73 96 87 86 84 89 76 71 61 57 84 91 73 66 65 58 52 49 83 91 100 100 97 91 99 80 97 100 100 99 100 100 100 100 76 99 100
76 50 60 78 64 66 75 77 100 90 67 61 50 41 48 61 57 75 79 89 75 72 80 88 96 100 100 100 100 100 100 100 100 100 100 100 100 100 100 95 70 93 95
100 100 100 100 100 100 100 97 100 100 99 81 70 78 83 75 80 75 93 100 100 100 100 100 100 100 91 94 99 100 95 100 97 98 100 100 100 91 70 90 98 94 70
100 100 100 89 100 97 100 93 82 83 100 100 98 100 97 100 100 100 100 100 100 96 100 100 90 83 83 64 70 66 78 86 96 98 87 78 87 68 61 55 64 54 58
100 100 100 100 100 100 100 100 100 100 100 100 100 100 95 86 99 100 100 99 100 100 92 100 87 76 88 91 85 53 53 47 50 51 86 96 56 55 49 48 49 49 47
100 100 100 100 100 97 100 98 99 100 100 100 92 73 77 89 95 85 82 81 77 75 93 91 96 91 71 74 77 55 49 45 51 44 52 63 56 54 51 47 46 41 38
100 100 100 96 100 99 100 100 100 100 100 100 100 100 100 100 100 100 92 84 88 69 76 99 100 91 67 73 81 60 53 50 50 43 43 44 46 50 49 42 43 40 38
100 90 89 85 100 97 100 100 100 100 100 100 100 100 100 92 100 100 92 85 68 60 56 55 57 62 57 57 63 56 45 42 47 52 43 33 40 42 44 42 40 38 41
100 100 100 100 100 100 100 100 100 100 100 100 100 100 98 89 83 69 62 58 56 48 41 42 42 46 46 47 43 41 40 39 38 37 37 35 36 41 42 40 38 39 42
93 100 100 100 100 100 100 100 100 100 100 100 100 97 85 82 73 64 55 50 49 40 36 37 35 36 36 36 32 31 31 33 36 37 37 36 37 37 40 39 38 39 40
99 100 100 100 100 100 100 100 100 100 100 96 93 93 65 53 47 40 44 40 38 38 34 30 30 31 31 29 28 28 31 33 33 34 34 34 38 39 39 39 40 42 44
100 100 100 100 100 100 100 100 100 100 100 100 78 67 60 47 46 49 43 42 37 33 32 33 30 24 22 22 24 26 28 29 31 33 35 38 41 42 44 45 44 48 49
100 100 100 100 100 100 100 100 100 100 84 70 71 56 56 56 53 51 44 36 31 31 28 21 19 17 15 15 16 17 18 22 26 28 29 29 32 34 36 36 37 45 41
100 100 100 100 100 100 100 100 92 94 87 63 63 68 51 57 40 37 32 34 29 22 18 16 14 14 14 15 16 16 17 18 19 20 21 23 23 24 30 33 35 42 42
98 96 95 92 100 100 96 84 69 66 70 57 56 50 42 35 33 35 32 25 21 17 15 13 12 12 13 12 12 13 14 16 16 17 18 19 21 22 26 33 39 40 46
78 76 69 69 66 73 65 59 59 54 50 43 39 35 35 34 33 29 24 20 17 16 14 14 13 14 14 14 14 14 14 13 14 15 17 18 21 25 29 34 38 42 46
51 59 57 50 46 46 43 45 44 44 41 35 38 37 35 32 28 23 22 20 19 17 16 17 19 20 21 21 19 21 19 17 16 18 23 23 28 32 37 42 50 60 62

GFSMA_250_rhum_114.txt.gz
RH
100 100 100 75 74 97 97 95 94 90 68 76 81 61 67 68 81 86 88 62 48 48 54 61 65 71 68 67 53 53 60 54 52 53 46 46 52 54 46 45 48 44 44
100 100 100 94 85 100 100 100 100 98 99 100 97 100 100 100 99 96 84 68 71 69 64 61 66 74 73 60 57 54 50 45 50 52 48 51 45 45 52 44 50 54 47
93 97 94 85 97 96 82 74 80 76 82 100 66 81 98 99 100 75 78 99 92 99 89 89 74 70 54 60 58 52 48 47 55 54 58 53 52 44 49 52 54 58 55
97 79 84 85 100 100 98 86 98 100 100 100 94 99 100 100 100 100 100 95 100 100 89 73 71 62 57 61 72 51 53 54 42 45 57 54 63 58 54 57 60 86 74
93 75 75 97 100 100 100 99 100 100 100 100 100 100 100 100 92 71 86 90 100 77 82 76 76 70 62 64 73 52 59 52 54 55 62 65 62 68 60 69 71 88 75
90 60 69 100 100 96 86 96 100 100 100 100 98 100 100 70 75 84 93 91 96 55 58 73 78 69 60 52 59 49 43 52 64 86 92 80 69 71 66 88 76 92 86
84 74 58 56 71 88 100 100 100 100 100 100 100 94 86 70 90 95 77 61 48 51 64 75 74 64 57 56 50 41 48 60 76 87 83 84 87 90 100 85 100 77 54
56 57 69 82 86 98 92 100 100 96 83 83 96 71 78 70 70 61 65 53 44 55 66 64 70 58 51 56 53 42 52 66 82 100 84 72 84 100 100 100 98 100 73
98 100 100 93 93 100 95 79 71 70 71 73 72 64 89 70 81 62 45 40 42 48 55 52 53 43 44 42 46 60 65 65 80 74 81 78 80 68 96 85 70 87 100
100 100 100 100 100 87 89 69 65 73 77 76 67 58 62 53 42 35 30 38 48 40 41 46 45 49 53 57 62 74 88 88 78 86 86 83 80 84 71 70 80 82 92
100 100 100 100 92 65 67 62 63 68 63 52 58 71 36 32 30 30 32 43 43 50 49 66 70 72 87 95 99 92 89 86 85 80 74 67 84 90 92 84 74 79 92
100 82 86 100 100 100 100 100 100 90 73 58 42 55 50 42 43 56 63 69 94 98 94 89 84 97 93 99 100 94 90 72 79 93 100 98 78 83 100 94 81 82 91
86 73 95 100 100 100 100 100 100 90 66 78 67 65 45 56 51 60 71 100 100 100 85 88 84 81 93 100 99 100 100 96 97 88 76 67 80 71 76 90 80 75 74
100 100 100 100 100 100 100 100 100 100 83 67 49 59 82 70 92 92 100 100 90 96 99 78 98 100 100 100 100 100 100 100 73 64 64 75 71 65 68 68 68 53 56
100 100 100 100 100 100 100 100 96 93 94 71 85 83 85 79 100 100 100 79 100 97 100 100 92 100 100 97 99 92 71 46 46 44 41 42 49 50 58 54 46 44 45
100 100 100 100 100 100 100 100 100 100 97 94 100 100 100 100 100 100 100 95 100 84 100 100 99 92 92 73 77 51 38 38 34 37 40 40 44 44 46 44 41 38 44
100 100 100 100 100 100 100 100 100 100 100 100 100 100 100 100 100 100 100 100 100 100 100 98 100 100 75 51 44 34 36 34 30 33 30 32 36 39 39 40 40 41 42
100 100 100 100 100 100 100 100 100 100 100 100 93 79 100 100 100 100 98 84 100 95 89 88 83 51 46 39 28 27 29 28 27 29 29 29 31 34 38 40 40 44 48
100 97 95 97 99 100 100 100 98 100 100 100 88 93 97 100 99 100 100 94 89 91 80 73 54 40 39 33 29 30 29 25 25 22 20 21 23 31 38 40 47 48 49
100 100 100 100 100 88 100 99 100 100 100 100 100 100 100 100 100 99 99 97 98 81 74 67 40 42 34 33 34 29 26 20 17 16 17 17 19 23 27 34 37 42 50
100 100 100 100 100 100 100 100 100 88 97 100 100 100 100 100 100 100 100 100 83 87 70 58 50 38 40 31 30 26 18 15 14 13 14 16 16 19 21 22 25 34 44
100 100 100 100 100 100 100 100 100 100 96 99 91 100 100 100 100 100 100 100 70 81 64 56 46 42 33 29 25 17 13 11 11 11 13 15 16 17 20 22 24 24 32
100 100 100 100 100 100 100 100 100 100 100 100 100 100 100 100 100 98 98 85 77 66 58 47 47 35 31 26 18 13 11 11 12 13 15 15 15 16 18 20 23 26 34
100 100 100 100 100 100 100 100 100 100 100 100 100 100 100 100 100 100 87 81 73 56 51 42 36 33 28 18 14 12 12 14 16 18 19 20 18 19 20 22 25 30 34
100 100 100 100 100 100 100 100 100 100 98 95 100 100 100 100 100 83 75 63 59 44 36 33 32 28 19 16 14 16 19 20 19 20 21 23 23 25 25 28 31 36 38
100 100 100 100 100 100 100 100 100 100 100 100 100 100 100 96 83 67 57 53 41 30 31 34 28 22 17 17 18 23 23 23 23 20 20 21 24 28 31 35 39 41 47

GFSMA_250_rhum_117.txt.gz
RH
98 88 81 100 100 100 100 74 72 95 100 100 100 100 94 92 76 74 76 94 99 84 67 100 100 100 98 91 67 75 70 68 60 47 49 43 48 48 53 66 62 56 53
100 100 97 95 100 100 100 82 83 97 97 95 100 83 84 100 82 83 83 76 100 94 100 85 77 81 74 81 84 82 55 54 50 51 44 44 48 48 68 72 77 71 50
99 100 97 90 84 86 86 78 74 79 100 98 98 95 100 100 100 100 100 100 100 96 78 64 46 55 77 73 78 68 54 50 49 46 47 52 59 65 69 79 77 74 66
100 100 100 100 100 86 77 75 83 100 100 100 100 100 100 100 100 100 100 100 92 74 59 54 45 55 50 54 61 56 54 53 53 48 44 47 56 64 74 70 66 73 78
100 100 100 100 100 90 79 76 79 100 100 100 99 100 94 97 90 100 97 92 63 53 49 46 52 48 41 39 48 46 49 47 48 46 49 50 55 62 62 63 74 68 73
100 100 100 100 100 89 73 86 100 100 100 96 100 99 98 87 82 70 74 73 62 48 43 45 41 32 31 38 40 44 48 45 50 50 55 64 52 45 55 50 54 58 72
100 100 99 100 100 100 92 88 80 74 76 90 100 86 68 62 49 54 62 59 55 47 50 44 33 33 36 40 38 43 48 44 50 55 61 72 78 78 92 77 75 62 65
100 100 100 95 85 77 77 75 79 96 93 88 68 64 64 52 54 45 57 49 50 53 43 34 28 35 41 39 45 49 42 43 41 48 76 70 99 100 100 87 100 97 83
100 98 89 67 99 100 100 100 95 97 82 64 73 52 57 56 42 47 39 40 37 41 29 27 35 36 37 34 32 38 40 46 60 99 100 100 100 100 100 80 68 75 81
92 78 80 99 100 100 100 100 83 71 85 76 66 62 62 51 54 42 29 35 32 31 21 24 28 30 30 26 43 60 65 74 100 100 100 100 100 100 74 64 45 50 74
77 87 100 100 100 100 100 88 83 82 73 74 84 85 75 59 59 50 47 41 26 20 18 20 23 27 37 52 80 92 100 100 100 100 100 100 96 91 42 38 42 48 51
86 100 100 100 100 100 100 72 63 85 79 56 54 87 84 76 76 52 60 34 30 30 29 33 54 92 100 82 97 84 100 100 97 97 85 97 99 54 35 35 42 49 52
99 100 100 100 100 100 100 98 100 99 97 100 96 71 54 56 72 62 64 37 39 38 53 78 100 100 100 81 88 100 91 80 72 66 87 92 73 38 31 33 34 39 46
100 100 100 100 98 93 100 100 100 100 97 99 100 82 97 90 96 79 64 74 76 85 95 80 89 100 92 99 100 90 90 88 72 78 69 72 43 30 24 29 32 40 53
91 93 100 100 100 100 100 100 100 100 100 98 96 91 100 94 79 58 83 89 96 96 99 100 100 100 100 99 100 89 76 81 64 48 51 45 41 28 26 26 28 32 37
100 98 100 100 100 100 100 100 100 100 100 100 100 100 98 83 80 100 100 100 100 100 100 100 100 94 92 74 69 67 63 66 59 44 40 40 30 27 24 22 21 24 28
100 100 100 100 100 100 100 100 100 100 98 100 92 100 89 98 99 100 100 100 100 100 100 87 100 98 98 87 59 79 50 44 44 51 34 33 30 26 21 17 16 18 19
100 100 100 100 100 100 100 100 98 98 90 75 71 82 100 100 100 100 100 100 100 82 100 100 98 86 74 63 65 66 52 40 56 37 35 33 26 24 16 14 13 15 19
100 100 100 99 100 100 89 100 100 100 100 100 100 100 100 100 100 100 100 92 100 100 97 90 79 86 67 72 68 68 54 55 55 36 38 28 24 19 13 12 13 14 18
100 100 100 100 100 100 100 97 99 100 100 100 100 100 100 100 96 87 89 97 98 96 93 82 96 88 70 87 82 72 58 62 58 43 41 27 20 14 12 12 14 16 18
100 100 100 100 100 100 100 100 100 100 100 100 100 100 100 100 100 100 99 100 87 78 98 96 99 95 96 89 73 71 64 71 46 42 38 24 15 11 12 14 17 18 19
100 100 100 100 100 100 100 100 100 100 100 100 100 100 100 100 100 100 97 99 100 100 100 93 99 98 85 74 78 60 60 55 57 36 27 18 12 12 17 18 20 24 22
100 100 100 100 100 100 100 100 100 100 100 100 100 100 100 100 100 100 100 100 100 100 98 100 87 93 85 81 71 62 62 57 40 32 22 14 12 18 16 19 20 25 29
100 100 100 100 100 100 100 100 100 100 100 100 100 100 100 100 100 100 100 100 97 97 93 90 90 88 86 82 80 72 63 47 32 24 15 12 18 17 18 18 21 26 28
94 100 100 100 100 100 100 100 100 100 100 100 100 100 100 100 100 100 100 100 88 100 96 100 92 97 87 83 67 59 53 38 26 18 13 18 18 18 19 19 21 26 33
100 100 100 100 100 100 100 100 100 100 100 100 100 100 100 100 100 100 100 100 98 94 100 100 98 86 77 71 70 55 35 26 20 14 18 22 17 21 19 23 25 27 34

GFSMA_250_rhum_120.txt.gz
RH
93 90 91 82 68 67 72 100 100 100 99 80 74 100 96 86 89 80 98 97 95 99 100 100 100 94 70 51 45 52 60 58 52 48 45 49 44 45 46 42 54 52 71
94 84 88 99 97 88 74 86 100 100 100 100 78 65 64 67 98 99 84 100 100 100 100 100 64 55 50 41 42 45 41 44 50 45 46 43 42 42 35 37 66 87 100
97 98 98 97 100 100 100 89 74 84 86 80 79 73 72 99 100 72 80 94 96 87 70 62 57 49 46 41 47 31 32 37 41 37 46 39 40 36 46 65 86 97 100
89 100 100 100 100 100 100 100 100 100 97 84 82 80 77 84 80 90 95 87 71 66 67 55 74 52 39 44 44 30 35 44 40 39 46 40 40 36 64 81 100 100 100
84 92 88 90 96 100 98 100 100 100 100 99 89 78 81 100 96 93 84 84 66 56 51 44 36 36 39 54 41 30 32 40 36 31 35 31 34 37 92 98 100 100 100
99 97 100 100 100 100 100 100 100 100 100 100 100 100 99 99 86 80 74 56 46 41 35 32 32 36 42 39 27 29 33 33 36 26 27 27 32 81 100 100 100 100 100
100 100 100 95 100 100 100 100 100 100 100 100 100 100 100 92 87 65 56 46 37 32 30 30 28 28 36 26 22 23 27 26 26 28 35 42 64 99 93 94 79 85 92
100 100 92 94 96 100 100 100 100 99 98 96 96 96 98 83 64 51 42 33 34 34 37 32 27 36 28 25 22 22 25 29 32 44 57 74 100 99 94 97 100 96 75
100 100 98 76 77 100 100 100 99 100 100 100 100 82 74 62 49 38 36 31 29 30 32 29 29 30 30 21 20 18 20 24 43 73 88 92 97 85 67 64 68 56 59
92 81 68 49 54 100 100 100 100 100 100 100 100 80 66 51 52 38 38 26 22 23 26 26 39 38 31 25 20 21 35 56 79 96 93 81 85 99 82 64 54 49 34
89 64 68 44 79 100 100 100 100 100 100 100 95 98 69 59 46 32 33 30 30 22 22 32 36 29 28 22 18 25 46 74 100 97 100 76 88 72 68 62 55 39 29
96 72 49 36 96 100 100 100 100 100 100 100 100 95 80 57 77 45 44 38 35 26 23 32 27 21 19 24 58 54 75 100 100 92 91 96 61 50 53 69 49 45 30
84 77 56 49 97 100 100 100 100 100 100 100 100 94 69 57 45 31 45 58 44 61 33 20 24 53 94 59 39 67 99 100 98 84 78 60 63 55 48 50 41 34 26
90 84 71 86 100 100 100 100 100 100 100 100 100 91 77 67 79 76 53 62 60 35 43 57 52 52 45 39 99 100 99 78 77 61 64 59 59 55 60 51 35 30 25
100 93 76 86 100 99 100 100 100 100 100 100 100 100 100 90 93 62 65 59 53 75 88 94 78 66 46 84 100 100 92 72 81 68 49 47 60 67 61 55 35 28 25
99 71 95 85 93 100 100 100 100 100 100 100 100 100 100 92 77 70 70 82 82 100 95 87 73 57 100 100 93 99 66 74 59 52 68 78 45 51 61 58 37 32 23
98 93 90 91 66 100 100 100 100 100 100 100 100 100 96 93 66 80 93 100 98 91 84 83 97 100 100 100 98 82 83 75 82 66 69 74 48 52 59 55 42 26 23
97 100 100 99 82 100 100 100 100 100 100 100 100 93 82 74 72 96 100 100 82 97 100 100 100 100 100 100 76 93 86 86 100 72 78 80 44 62 54 39 40 22 19
100 100 100 99 100 84 82 100 100 100 100 100 93 94 99 86 86 78 99 100 100 100 100 100 100 96 84 81 94 100 100 100 94 84 60 62 58 64 54 40 30 24 18
100 100 100 100 100 100 100 100 100 100 100 100 100 100 100 100 100 97 100 100 100 100 100 100 96 81 95 100 95 100 100 92 84 94 71 64 66 66 41 41 34 20 15
100 100 100 100 100 100 100 100 100 100 100 100 100 100 100 100 100 100 99 100 95 100 99 98 97 100 100 100 100 100 85 74 95 70 71 89 63 52 40 32 22 18 14
100 100 100 100 100 100 100 100 100 100 100 100 100 99 97 100 100 99 100 100 100 100 100 100 100 100 100 100 100 83 99 100 73 63 64 91 58 49 43 34 18 14 16
100 100 100 100 100 100 100 100 100 100 100 100 100 100 100 100 100 100 100 100 100 100 100 100 100 100 100 99 100 98 100 69 48 64 75 72 52 45 40 35 17 15 17
100 98 100 100 100 100 100 100 100 100 100 100 100 100 100 100 100 100 100 100 100 100 100 94 84 89 100 94 98 96 75 84 76 79 72 52 45 44 40 22 16 19 16
100 100 95 72 81 100 100 100 100 100 100 100 100 100 100 100 100 100 100 100 100 100 100 100 96 100 100 100 97 95 99 83 73 76 67 52 42 40 26 18 17 21 18
100 100 100 100 100 100 100 100 100 100 100 100 100 100 100 100 100 100 100 100 97 97 99 100 100 92 99 97 100 90 95 98 65 70 52 47 40 26 19 17 23 20 22

GFSMA_250_rhum_126.txt.gz
RH
100 87 95 97 93 98 100 100 100 99 95 86 73 69 68 86 93 100 100 95 97 67 73 69 61 74 81 95 84 60 43 28 24 22 23 25 26 26 30 30 23 42 70
94 91 83 100 98 95 100 100 99 98 100 91 96 100 100 100 98 100 100 84 86 96 87 77 88 97 93 88 80 56 35 25 21 20 20 25 25 26 27 21 22 43 74
72 89 94 100 100 100 100 100 94 97 100 99 99 100 100 99 100 100 82 97 100 100 82 86 100 100 96 84 64 45 24 23 20 23 20 21 24 30 24 20 18 57 89
50 67 84 100 100 100 100 100 93 84 100 100 100 100 99 88 98 100 100 100 100 99 71 100 100 100 98 64 55 33 19 15 19 25 24 18 25 27 23 18 18 73 63
42 64 86 97 100 100 100 100 100 100 100 100 100 100 100 100 97 95 100 94 98 96 88 100 100 98 69 54 45 27 18 16 16 21 24 24 23 22 20 16 23 57 70
98 99 97 100 100 100 100 100 100 100 100 100 100 100 100 78 75 73 92 100 98 100 100 100 97 78 62 54 39 25 19 17 14 15 16 17 19 19 17 21 39 86 61
87 64 100 100 100 100 100 100 100 100 100 100 100 100 100 75 75 87 91 90 100 100 91 88 73 67 53 43 34 25 18 16 14 14 18 20 19 17 26 41 57 43 57
98 100 100 100 100 100 100 100 100 100 100 100 100 100 82 71 91 95 100 100 100 100 100 79 67 59 50 42 37 28 22 19 14 14 17 18 19 29 45 52 89 75 83
100 100 100 100 100 100 100 100 100 100 100 100 100 88 76 82 100 100 100 100 98 86 74 69 61 49 46 37 30 27 22 19 15 14 16 20 43 44 59 72 68 92 71
100 100 100 100 100 100 100 100 100 100 100 100 79 80 97 79 97 95 100 100 99 85 75 74 52 42 42 34 30 30 22 18 14 15 17 41 47 49 64 61 47 70 69
100 100 100 100 100 100 100 100 100 97 96 84 100 100 98 78 80 100 100 100 98 78 76 68 57 48 41 35 38 34 24 20 17 18 37 65 44 60 54 40 48 57 70
100 100 97 100 100 100 100 100 94 100 100 100 100 100 80 74 100 100 100 100 95 91 90 76 62 63 45 46 37 30 21 14 19 37 45 56 48 66 45 44 51 70 66
100 100 100 100 100 100 100 100 100 100 100 100 98 92 79 100 100 100 99 90 100 100 94 87 76 52 52 40 31 22 21 24 45 51 57 56 50 74 44 61 62 43 78
100 100 100 100 100 100 100 100 93 100 100 92 69 100 99 100 100 100 100 92 94 89 79 79 68 39 38 31 34 44 36 60 61 57 69 58 79 61 56 51 72 58 78
100 100 100 100 100 100 100 97 97 100 97 82 100 96 100 100 100 100 100 90 86 77 79 57 40 38 39 46 50 60 57 68 69 63 59 59 69 84 57 65 64 60 84
100 100 100 100 100 100 100 92 87 92 93 86 100 100 100 100 100 100 98 93 99 92 79 64 61 54 53 66 88 69 72 80 77 80 82 89 98 67 55 76 74 85 95
100 100 100 100 100 100 100 100 100 99 100 100 100 100 100 100 100 100 100 99 100 96 83 92 69 53 71 85 79 73 83 79 90 96 90 100 87 80 76 72 74 100 99
100 100 100 100 100 100 100 100 100 100 79 96 100 100 100 100 100 100 100 100 100 100 90 87 100 99 91 78 81 80 88 100 100 100 79 73 82 86 95 79 100 100 86
100 100 100 100 100 100 100 100 100 100 100 100 100 100 100 100 100 100 100 100 95 95 99 98 83 87 96 80 98 99 100 98 90 88 94 77 73 74 83 100 100 100 82
100 100 100 100 100 100 100 100 100 100 100 100 100 100 100 100 100 100 100 100 100 100 100 100 100 100 95 89 87 96 88 88 81 85 97 98 83 96 100 100 98 87 78
100 100 100 100 100 100 100 100 100 100 100 100 96 100 100 100 100 100 100 100 100 100 100 100 96 91 99 100 89 54 69 90 98 95 100 100 96 94 100 100 100 92 64
100 100 94 91 81 81 96 82 100 98 71 86 54 63 69 93 100 100 100 99 56 97 100 91 92 100 86 92 86 100 100 90 100 100 100 100 98 97 100 99 95 57 78
100 100 100 100 100 98 100 100 87 90 100 98 100 100 100 98 95 76 68 86 97 99 97 92 86 81 90 84 93 100 100 100 100 100 100 91 100 100 100 100 90 72 78
100 100 100 100 100 100 100 100 100 100 99 100 100 100 100 100 100 99 99 100 79 71 75 82 84 98 100 100 100 100 100 100 100 100 100 100 100 100 100 82 96 90 91
100 100 100 100 100 100 100 100 100 100 100 100 100 100 100 100 100 100 100 92 99 90 99 100 100 100 100 100 100 100 99 97 100 100 100 100 100 100 80 100 100 100 90
100 100 100 100 100 100 100 100 100 100 100 100 100 100 100 100 100 95 100 100 96 96 100 100 100 99 96 99 100 100 100 100 100 100 100 100 100 96 89 91 100 67 88

GFSMA_250_rhum_129.txt.gz
RH
100 97 89 91 91 80 78 73 75 78 91 97 89 96 86 75 77 100 100 100 92 100 97 98 98 99 89 80 68 83 91 61 39 19 16 20 31 29 25 29 24 20 18
73 85 94 93 95 98 92 82 81 85 95 98 92 82 99 86 84 95 87 88 100 100 95 92 87 86 93 72 94 99 88 57 36 21 16 18 24 20 24 20 19 19 20
23 82 93 94 97 100 100 96 95 87 82 87 92 83 80 87 91 86 93 97 100 89 90 78 61 74 98 79 98 96 70 51 32 21 19 16 16 18 18 19 18 20 27
22 39 81 86 99 96 100 89 97 100 97 96 100 100 100 91 90 97 88 100 98 77 78 71 72 83 100 100 100 71 61 47 39 27 20 18 18 19 18 18 18 26 32
64 24 21 50 74 100 100 100 100 100 100 100 100 100 100 100 100 100 100 100 93 81 94 96 90 100 100 87 75 57 55 48 40 30 23 20 17 16 15 15 18 26 31
47 26 18 20 31 74 97 95 100 100 100 100 100 100 100 97 100 100 100 100 88 73 81 79 92 100 100 82 65 47 44 34 29 31 24 21 16 15 15 17 26 28 30
33 32 18 19 21 34 64 81 100 100 100 100 100 100 100 100 100 98 100 91 80 80 88 61 79 100 100 76 61 55 37 38 32 34 26 26 17 15 14 18 39 47 31
57 50 29 22 29 37 63 76 98 100 100 100 100 100 100 100 100 100 100 81 75 86 96 70 78 95 94 65 60 58 43 42 34 29 24 24 17 16 17 26 59 57 44
65 65 44 57 80 95 96 100 100 100 100 100 100 100 100 100 100 100 96 82 72 100 100 86 74 82 87 67 55 55 50 50 36 27 20 19 15 20 34 34 38 36 40
73 70 99 99 100 100 100 100 100 100 100 100 100 100 100 80 65 87 87 69 97 100 98 80 79 88 66 62 65 61 59 52 30 22 21 17 20 26 41 37 38 34 44
83 78 100 100 84 100 100 100 100 100 100 100 100 100 100 97 89 79 56 83 100 100 94 73 74 68 66 59 66 75 64 44 30 24 18 18 32 35 37 37 35 42 45
78 94 100 96 100 91 100 100 100 100 100 100 100 96 90 100 92 95 92 94 100 96 86 74 80 80 83 68 61 66 66 52 38 25 20 22 43 32 31 34 38 39 49
97 92 100 100 100 100 100 100 100 100 100 100 95 92 100 100 100 100 90 81 99 94 85 78 78 60 73 86 86 59 68 52 36 24 24 41 42 38 33 42 47 40 40
100 100 100 100 100 100 100 100 100 100 100 100 100 100 100 100 100 100 88 78 100 92 79 72 80 92 87 94 81 71 50 42 39 25 36 54 47 40 42 48 48 52 54
100 92 100 100 100 100 100 100 100 100 100 100 100 100 93 100 100 94 95 99 100 96 73 84 90 98 94 92 83 48 52 48 49 35 45 66 60 43 50 64 57 49 51
100 100 100 100 100 100 100 100 100 100 100 100 100 100 100 95 98 99 100 100 100 94 85 97 98 93 90 83 80 75 66 69 50 42 50 78 61 54 70 56 92 68 52
100 100 100 100 100 100 100 100 100 100 100 100 100 100 100 100 100 100 100 99 91 98 100 97 89 83 99 90 47 46 67 76 58 73 88 66 68 75 69 73 79 73 80
100 100 100 100 100 100 100 100 100 100 100 100 100 100 100 100 100 100 100 100 99 85 89 85 100 90 97 56 68 98 81 52 81 92 75 98 88 88 80 76 69 88 96
100 100 100 100 100 100 100 100 100 99 100 100 100 100 100 100 100 72 96 100 100 100 100 97 88 64 82 97 74 51 76 86 96 100 80 98 64 77 63 99 99 80 96
100 100 100 100 100 100 100 100 100 100 100 100 100 100 100 93 100 100 99 100 100 87 75 86 89 99 79 76 64 100 100 100 100 100 82 75 64 72 86 82 96 100 100
100 100 100 100 100 100 100 100 100 100 100 100 100 100 98 100 100 100 98 100 100 100 100 89 67 72 67 62 97 100 100 98 97 94 74 92 100 93 91 88 82 100 100
100 100 100 100 100 100 100 100 100 100 100 100 100 100 100 100 100 100 100 100 100 98 90 75 92 92 97 100 87 99 97 81 100 99 100 100 100 89 84 97 100 100 100
100 100 100 100 100 100 100 100 100 100 100 100 100 100 100 100 100 100 100 94 71 64 80 82 87 100 93 100 90 100 100 100 100 100 98 99 97 97 100 100 100 100 100
100 100 100 99 97 90 86 85 84 82 98 99 97 81 88 74 74 74 64 60 71 93 100 97 98 100 100 100 100 100 100 100 96 100 86 93 95 96 100 100 100 100 100
100 100 90 92 98 91 80 91 89 92 99 88 96 88 84 79 94 99 100 98 95 93 97 100 100 100 100 100 100 100 97 100 92 100 100 100 100 100 100 100 100 100 100
100 100 100 100 100 100 100 100 100 100 100 100 100 90 94 100 100 100 100 100 93 92 100 100 98 100 100 100 100 100 100 100 100 100 100 100 100 99 100 100 100 89 96

GFSMA_250_rhum_132.txt.gz
RH
100 39 40 65 93 99 82 86 80 80 82 81 70 71 83 93 84 94 88 81 76 71 77 100 91 72 66 70 70 80 83 86 85 59 42 40 28 20 18 17 19 20 20
83 83 66 80 100 100 100 93 93 85 87 83 79 79 88 88 82 68 67 73 70 73 82 100 94 68 60 72 79 86 93 87 65 47 38 32 29 23 21 18 16 17 18
91 66 53 62 99 100 100 100 88 85 82 83 95 93 89 81 73 82 81 88 91 97 100 100 89 66 72 65 74 82 81 77 61 47 38 34 34 28 24 18 16 16 19
90 89 55 29 29 81 100 100 100 86 88 87 96 96 100 100 100 100 89 100 100 100 100 100 85 70 69 52 59 89 95 93 63 53 43 47 33 31 24 18 16 18 20
97 88 80 37 20 25 51 89 100 95 94 96 93 98 100 99 100 98 97 100 100 100 100 100 83 70 68 55 52 81 100 78 53 60 56 53 34 30 20 18 18 17 19
68 59 62 48 21 21 23 51 96 89 96 96 93 98 100 100 100 100 100 93 100 100 100 100 94 72 60 58 49 49 65 59 52 49 65 51 30 22 18 15 18 20 22
69 78 66 69 51 35 19 19 45 48 80 100 88 96 89 99 100 100 100 100 66 100 100 100 99 70 64 65 59 46 61 63 46 69 64 50 50 37 20 18 20 25 22
54 46 79 69 77 55 55 25 18 20 28 71 100 88 100 100 100 100 100 100 89 81 99 97 88 70 59 67 62 48 54 53 55 59 73 53 52 42 28 20 19 24 25
64 90 91 95 88 54 66 40 18 21 23 30 56 97 100 100 100 100 100 100 100 99 72 72 63 61 72 69 50 51 48 66 47 50 52 34 44 26 20 18 19 25 29
42 51 58 67 89 61 57 71 57 29 30 36 77 99 100 100 100 100 100 99 100 72 84 95 78 71 68 64 54 49 36 52 55 53 91 41 25 21 20 18 19 28 29
42 50 96 90 99 100 77 83 53 41 64 99 100 100 100 100 100 100 100 100 75 71 97 100 77 80 76 64 63 50 48 50 67 80 81 49 22 20 22 22 26 29 41
32 47 62 76 77 100 94 100 98 92 100 100 100 100 100 100 100 100 100 94 84 99 100 93 89 84 89 71 62 55 60 65 57 60 59 52 22 24 23 35 30 38 40
35 50 66 43 93 100 100 100 90 87 100 100 100 100 100 100 100 100 91 92 91 84 79 100 100 100 86 73 63 60 63 63 75 42 32 31 28 28 35 33 33 57 49
50 53 52 54 83 100 100 100 100 94 100 100 100 100 100 100 100 99 93 94 84 66 89 100 100 100 79 62 54 64 78 62 49 41 46 36 39 41 44 42 57 74 63
39 40 54 49 95 100 100 100 100 100 100 100 97 100 100 100 95 96 100 91 89 100 100 100 100 81 78 71 67 66 54 44 42 38 43 47 57 63 46 54 64 68 66
37 42 55 44 62 86 100 100 100 100 100 100 100 100 100 100 100 100 100 99 100 100 100 89 98 100 95 83 73 65 68 54 45 57 56 69 47 45 60 62 73 56 97
38 50 54 49 94 96 100 100 100 100 100 100 100 100 100 100 100 100 100 100 100 100 100 100 100 100 96 73 56 45 44 61 67 69 67 58 54 53 79 79 82 100 100
32 47 54 52 99 100 100 100 100 100 100 100 100 100 100 100 100 100 100 100 100 100 100 100 82 70 45 46 68 74 85 94 81 84 62 74 72 92 68 97 100 87 74
22 36 46 44 86 100 100 100 100 100 100 100 100 100 100 100 100 100 99 100 100 100 88 82 60 67 86 89 100 99 86 88 94 57 47 51 84 100 90 100 93 99 94
24 30 34 36 69 100 100 100 100 100 100 100 100 100 100 100 100 89 99 100 96 94 92 92 93 100 100 100 100 93 99 86 69 60 68 100 100 95 99 100 94 96 100
36 44 61 92 100 100 100 100 100 100 100 100 100 97 100 100 100 100 95 100 100 100 100 100 100 100 100 81 100 100 90 86 83 98 100 100 99 96 100 99 95 100 86
50 63 76 100 100 100 100 100 100 100 100 100 100 96 100 96 100 100 100 100 100 100 100 100 100 100 100 93 95 90 93 100 100 100 100 93 98 100 77 100 99 79 97
100 100 100 99 100 100 100 100 100 100 100 100 100 100 100 100 100 100 100 100 100 100 100 100 100 100 100 100 98 100 100 100 100 100 96 100 79 82 100 97 84 93 90
79 95 100 100 100 100 100 100 100 100 100 100 100 100 100 99 99 100 100 100 100 100 100 100 100 100 97 100 94 69 64 91 71 97 82 69 79 94 92 100 100 100 100
94 99 85 98 100 100 100 100 100 100 100 100 100 100 100 100 100 100 97 100 100 100 86 100 99 70 54 57 73 80 81 74 91 82 76 66 90 100 100 100 100 100 100
100 92 100 83 100 73 92 100 100 100 100 100 100 100 100 100 100 100 99 86 62 59 70 73 60 70 90 95 100 96 98 100 86 92 85 98 100 100 100 100 100 100 100

GFSMA_250_rhum_135.txt.gz
RH
96 100 100 100 88 54 41 52 68 78 94 90 90 82 75 74 77 76 85 78 77 73 81 86 99 100 100 92 61 62 46 77 92 89 80 59 51 56 24 29 24 20 18
85 80 88 100 100 89 40 36 55 82 97 100 100 98 88 79 80 77 96 86 81 86 84 100 100 100 100 100 85 62 56 68 96 93 76 54 48 44 26 23 23 19 19
100 100 76 84 100 100 99 64 55 74 91 96 100 100 99 93 86 94 92 94 100 100 92 100 100 100 100 100 100 71 63 51 73 76 48 52 46 62 51 51 27 22 19
100 94 95 80 72 77 92 79 64 84 89 100 95 100 100 100 99 89 85 100 100 99 100 100 97 100 97 91 100 79 69 58 56 42 43 44 37 63 51 66 42 23 21
81 92 80 84 86 66 73 95 80 47 67 85 99 94 98 100 94 98 91 99 96 100 100 100 100 93 63 66 94 83 68 55 50 39 40 51 58 52 58 55 34 22 20
74 87 81 68 73 85 65 77 80 66 28 29 68 79 93 85 79 95 100 90 83 100 97 100 100 95 60 54 56 62 59 60 48 43 37 36 42 47 64 33 26 20 20
42 40 42 45 70 70 78 54 58 64 38 23 21 45 77 86 83 90 94 98 97 100 100 100 90 100 81 50 52 61 55 54 47 44 40 32 36 43 69 57 29 20 19
45 38 48 46 74 91 68 64 64 53 50 53 38 24 27 78 97 68 88 100 100 100 100 100 100 91 80 62 64 73 64 48 44 46 42 34 27 46 48 38 25 23 20
43 40 43 48 64 84 76 66 62 77 73 58 64 90 62 32 29 53 62 99 100 100 100 100 99 81 59 59 68 93 56 45 58 54 47 37 32 35 34 30 26 26 21
39 39 36 46 56 64 80 84 72 65 67 76 78 97 92 47 21 34 64 98 100 100 100 100 100 88 53 89 71 84 57 54 64 59 51 45 37 30 29 30 31 29 23
31 40 35 48 61 55 61 93 99 94 71 75 100 100 90 87 67 78 100 100 100 100 100 100 84 59 74 83 71 85 68 66 73 79 61 40 37 33 33 34 31 32 29
35 47 47 60 66 72 69 68 61 66 99 69 92 100 100 72 84 100 100 100 100 100 100 84 67 68 95 83 71 80 78 75 84 74 59 50 38 29 31 40 44 31 30
36 43 55 79 84 98 99 87 62 77 100 93 77 100 100 98 100 100 100 100 100 100 100 82 63 83 90 95 86 91 87 86 88 68 61 54 38 38 40 49 60 35 33
42 54 65 75 100 100 100 100 100 80 100 100 91 99 100 100 100 100 100 86 91 100 86 71 92 99 100 91 79 98 100 77 72 74 74 49 52 52 56 65 54 34 33
45 56 70 92 100 100 100 100 100 89 72 64 100 98 100 100 100 100 100 100 100 100 100 95 100 100 100 100 89 99 92 77 75 70 64 59 61 70 71 79 69 46 30
28 47 71 95 100 100 100 100 100 100 82 68 99 100 100 100 100 100 100 100 100 100 100 100 100 100 100 100 100 83 56 55 71 64 63 68 69 81 87 92 63 38 34
12 23 46 70 100 100 100 100 100 100 93 70 100 100 100 100 100 100 100 100 100 100 100 100 100 100 100 100 84 61 63 62 78 76 85 89 99 89 94 84 69 50 76
7 12 25 57 92 98 100 100 100 100 80 62 100 100 100 100 100 100 100 100 100 100 100 98 100 100 99 79 99 74 94 99 96 100 100 100 100 100 95 96 64 58 88
5 8 16 26 42 59 100 100 100 100 66 56 100 100 100 100 100 100 100 100 100 100 100 100 100 100 99 84 79 56 97 77 86 100 100 100 100 100 99 84 48 79 100
6 8 12 19 27 71 98 100 100 100 64 82 100 100 100 100 100 100 100 100 100 100 100 100 100 100 100 93 100 99 94 95 86 98 97 84 94 95 83 64 85 100 100
10 13 13 16 27 67 100 100 100 90 79 100 100 100 100 100 100 100 100 100 100 97 96 100 100 84 78 100 100 100 100 100 100 84 94 100 86 98 92 83 100 99 99
14 14 18 30 58 100 100 100 97 97 100 100 100 100 100 100 100 100 100 100 100 100 100 89 100 100 100 100 100 100 100 100 98 100 100 100 100 100 100 91 100 75 96
23 29 37 46 60 89 97 98 100 100 100 100 100 100 100 100 100 100 100 100 100 85 84 92 84 100 100 100 94 88 100 100 100 100 100 100 100 100 87 57 50 90 74
50 54 53 67 76 98 100 100 100 100 100 100 100 100 100 100 100 100 100 100 100 100 100 100 100 100 100 100 100 100 99 100 100 88 100 87 75 71 39 42 98 67 66
59 65 62 76 90 100 100 100 100 100 100 100 100 100 100 100 100 100 100 100 100 100 100 100 100 100 100 100 100 100 100 92 94 91 62 45 50 52 75 100 91 64 80
100 100 100 100 100 100 100 100 100 100 100 100 100 100 100 100 100 100 100 100 100 100 100 100 100 100 100 100 72 81 83 100 79 51 32 51 85 99 97 92 78 77 100

GFSMA_250_rhum_138.txt.gz
RH
82 81 96 100 100 96 85 72 74 74 55 51 46 75 93 94 88 87 82 81 79 87 90 86 83 92 100 92 100 93 91 98 73 53 50 49 49 40 42 41 51 40 32
96 73 47 68 83 88 100 100 100 94 69 45 39 49 67 95 99 100 97 95 73 73 88 99 100 75 99 75 100 71 71 78 83 70 60 45 38 37 40 46 35 36 31
100 100 92 55 52 60 81 88 100 100 100 85 59 47 50 62 85 88 99 94 93 95 98 100 100 100 100 94 100 92 58 52 61 72 61 49 40 33 49 41 41 42 48
77 78 83 100 92 62 53 54 73 76 85 98 97 71 67 87 95 95 94 86 100 98 91 100 93 100 96 97 100 98 68 57 55 57 58 56 42 36 35 34 34 43 42
100 98 93 81 84 94 87 76 67 76 80 93 100 94 85 98 100 95 95 91 82 92 97 100 99 87 90 100 100 100 79 58 56 62 62 60 56 42 38 37 27 28 33
94 100 99 90 82 99 100 90 92 74 75 79 87 92 100 91 70 85 97 90 86 93 88 100 94 100 100 100 100 100 77 60 52 68 72 61 48 53 47 38 26 25 30
45 66 95 93 85 94 84 80 93 87 72 72 71 76 84 100 85 48 39 54 91 98 100 100 100 100 100 100 99 95 70 56 54 73 73 65 51 56 50 50 35 28 28
35 38 67 72 68 62 57 50 43 43 81 95 95 60 59 64 72 71 52 36 35 60 96 91 100 100 100 100 100 81 78 56 50 65 69 61 51 56 60 58 37 30 33
44 45 50 50 37 44 36 44 44 43 43 88 97 80 70 62 54 84 97 100 98 80 54 65 98 99 100 100 80 68 62 62 65 58 62 55 52 66 70 53 45 42 38
31 39 38 40 41 42 47 51 51 55 76 80 89 84 79 89 78 95 100 100 98 91 68 63 100 86 90 94 76 69 73 62 70 72 62 59 49 55 53 57 47 38 49
24 36 42 45 43 44 48 57 56 73 80 79 85 84 92 100 81 66 95 97 99 100 100 100 100 100 100 95 98 78 75 64 73 85 73 75 68 70 43 65 51 36 50
19 22 36 46 46 48 53 57 59 73 88 88 76 96 97 96 91 96 100 100 92 100 100 99 100 100 100 100 82 92 74 75 92 90 86 72 46 37 52 64 64 35 44
19 18 22 38 43 52 61 64 76 83 95 88 94 94 88 100 99 100 100 100 100 100 98 100 100 100 97 95 80 81 79 72 99 95 92 57 45 49 56 78 58 54 66
19 23 19 25 41 47 59 70 80 81 100 100 100 99 93 94 76 100 100 100 100 100 100 100 100 100 100 100 100 93 90 95 100 84 83 42 48 60 66 79 66 73 97
16 20 20 20 27 45 52 71 100 100 100 100 100 100 100 100 91 90 100 100 100 100 100 100 100 100 100 100 100 100 100 100 100 100 100 50 64 89 92 95 72 79 100
9 14 18 21 23 31 40 62 82 100 100 100 100 100 100 100 95 74 80 96 100 100 100 100 100 100 100 100 100 94 100 100 100 97 67 59 60 75 88 93 73 92 100
8 10 16 24 29 37 48 57 75 98 100 100 100 100 100 100 100 74 86 85 100 100 100 100 100 100 100 100 98 93 95 100 93 100 99 68 81 96 92 100 94 92 100
5 8 10 19 31 47 54 70 90 100 100 100 100 100 100 100 100 88 98 100 100 100 100 100 100 100 100 100 100 91 96 100 100 100 100 94 78 100 74 100 100 100 100
2 4 5 8 14 32 58 81 99 100 100 100 100 100 100 100 100 100 100 100 100 100 100 100 100 100 100 100 100 100 100 100 100 100 100 100 90 63 85 75 100 100 100
3 3 4 5 7 13 27 55 85 97 100 100 100 100 100 100 100 100 95 100 100 100 100 100 100 100 100 100 100 100 100 100 96 100 92 94 100 74 89 100 100 94 75
4 5 6 7 8 12 25 40 53 71 92 100 100 100 100 100 100 100 100 100 100 100 100 100 100 100 100 100 100 100 100 100 100 96 97 76 100 98 77 71 80 64 74
5 7 7 10 11 12 12 18 45 82 100 100 100 100 100 100 100 100 100 100 100 100 100 100 100 100 100 100 100 100 100 100 100 100 84 79 64 72 100 100 93 100 100
8 9 10 13 16 20 38 51 80 100 100 100 100 100 100 100 100 100 100 100 100 100 100 100 100 100 100 100 99 99 100 100 98 82 65 100 98 100 100 99 100 100 100
13 15 18 19 19 20 32 50 61 78 87 100 100 100 100 100 100 100 100 97 100 100 100 100 100 98 100 100 100 98 100 100 74 100 100 100 100 100 100 87 100 99 100
28 37 36 39 45 61 87 59 75 76 83 89 100 100 100 100 100 100 100 100 100 85 83 95 91 100 100 100 100 98 100 100 100 100 100 100 100 100 100 98 100 96 100
74 81 90 88 93 100 100 100 100 100 99 100 97 100 92 97 97 100 100 100 100 100 100 90 99 100 94 100 100 100 100 100 100 99 100 100 100 100 100 100 99 99 84

GFSMA_250_rhum_144.txt.gz
RH
81 83 85 75 74 84 77 79 98 95 87 88 80 68 76 73 75 76 92 76 71 61 50 59 81 98 100 100 93 100 100 100 85 100 100 96 100 96 65 53 71 66 66
85 63 74 83 95 97 91 92 90 84 92 86 91 95 96 99 99 100 90 94 93 91 86 70 72 91 100 100 100 100 100 100 99 98 100 62 97 96 65 57 58 70 73
100 100 73 58 68 72 68 66 70 58 57 60 65 82 97 100 100 100 97 100 100 90 87 91 89 89 95 100 100 100 100 100 100 100 98 100 87 73 76 62 54 71 74
100 100 100 100 95 67 66 78 76 73 62 63 73 74 68 65 72 95 92 96 100 98 88 98 100 100 100 99 100 97 100 100 96 100 100 100 100 99 69 67 56 67 78
100 100 100 100 100 100 100 100 91 71 74 78 76 67 66 78 76 86 78 89 68 76 100 100 100 98 94 88 89 74 54 49 98 95 100 100 100 84 78 68 62 66 74
100 100 100 100 100 100 100 100 100 99 96 99 98 95 82 82 96 87 57 49 45 64 86 95 95 90 83 82 100 100 97 77 54 55 100 100 98 99 78 75 67 75 70
100 100 100 100 100 100 100 100 100 100 100 100 100 98 100 96 95 80 65 48 44 39 45 66 79 80 76 78 79 98 100 100 100 100 100 97 98 91 88 83 80 83 79
86 100 100 100 100 100 100 100 100 100 100 100 100 100 100 100 91 69 60 56 56 50 51 53 74 74 70 76 74 68 82 100 95 100 100 91 87 98 96 84 87 73 80
37 47 85 98 100 100 100 100 100 100 100 92 78 73 63 78 78 62 54 64 65 74 67 71 74 72 71 67 65 70 90 92 68 72 74 79 70 74 90 89 96 90 66
37 36 36 47 59 96 95 93 88 83 69 64 43 48 55 51 56 60 56 58 62 69 72 84 85 95 83 72 64 73 74 83 78 63 79 84 81 93 88 95 86 91 87
35 34 32 31 32 44 54 46 46 47 40 44 47 50 54 50 56 56 60 58 62 68 76 80 83 78 70 67 84 74 68 92 93 98 99 97 95 96 95 100 92 82 66
28 27 28 28 31 36 40 36 36 40 43 44 47 46 44 48 54 59 60 64 65 69 71 77 90 83 91 76 86 87 80 86 89 100 100 100 97 100 100 100 96 88 72
24 25 25 28 29 33 38 41 38 38 43 44 40 41 42 44 50 58 64 66 70 72 74 97 92 94 92 85 77 93 98 96 96 99 100 100 100 100 100 94 82 75 70
19 20 22 24 28 28 28 33 36 34 38 38 36 36 41 49 56 60 66 74 77 85 89 99 100 95 100 100 100 97 100 100 100 100 100 100 100 100 100 100 99 85 64
16 17 17 16 17 19 21 23 26 30 32 33 35 33 34 44 54 69 71 72 76 83 88 86 100 100 100 100 100 100 100 92 95 100 98 100 100 100 100 100 100 100 100
14 14 15 16 17 17 16 15 15 17 23 24 26 33 36 39 48 52 60 72 77 88 83 100 100 100 100 100 100 100 100 100 100 91 100 94 100 100 100 100 100 100 100
9 9 9 10 12 13 14 14 14 15 16 16 20 23 24 38 42 44 71 82 94 95 100 100 100 100 100 100 100 100 100 100 100 100 100 100 95 100 100 100 100 100 94
6 6 7 9 10 12 13 16 18 19 20 22 22 26 28 32 44 51 62 75 96 100 100 100 100 100 100 100 100 100 100 100 100 100 100 100 95 100 100 100 100 100 100
6 6 7 8 10 11 14 13 14 18 23 27 27 30 31 34 40 42 52 72 100 100 100 100 100 100 100 100 100 100 100 100 100 98 100 99 100 100 100 100 100 100 100
4 4 4 5 6 7 9 11 14 20 24 27 31 37 44 47 51 55 90 100 100 100 100 100 100 100 100 100 100 100 100 100 100 100 100 99 100 96 90 100 100 100 100
2 2 2 2 2 2 3 4 5 9 13 23 28 32 44 49 68 65 83 100 100 100 100 100 100 100 100 100 100 100 100 100 100 100 100 100 96 86 95 91 100 100 100
2 2 2 2 2 2 2 3 4 5 7 13 24 38 45 48 51 54 64 86 100 100 100 100 100 100 100 100 100 100 100 100 100 100 100 100 100 93 80 78 89 100 100
2 2 2 2 2 2 2 3 4 5 7 12 21 29 30 22 25 36 42 47 55 66 84 82 75 71 87 97 97 100 100 100 100 100 100 100 100 100 90 90 97 100 100
3 3 3 2 2 2 3 3 4 6 9 11 15 17 16 15 15 18 21 22 23 33 50 71 84 85 94 95 100 100 100 100 100 100 98 99 100 99 98 100 87 90 96
12 9 6 5 4 4 5 6 8 10 11 14 14 13 14 15 14 16 23 27 58 81 83 94 100 100 100 100 100 100 100 99 100 100 94 82 94 87 96 88 90 79 79
29 21 15 13 12 13 13 14 14 15 16 16 17 18 22 30 45 65 83 92 100 100 100 100 91 96 100 100 98 95 96 98 94 90 93 89 85 89 92 96 88 71 56

GFSMA_250_rhum_147.txt.gz
RH
100 99 94 86 75 69 66 73 89 88 76 70 92 92 87 92 91 81 87 97 93 79 89 96 100 100 100 95 92 97 100 98 90 87 89 100 100 100 100 99 79 87 67
100 100 98 97 79 68 80 83 82 84 83 75 79 83 72 78 93 93 99 100 100 100 100 100 77 99 100 100 100 100 91 74 60 51 53 77 92 100 100 100 87 78 76
100 100 100 100 97 74 68 84 76 74 71 86 76 61 69 68 67 68 74 79 82 70 86 100 80 75 100 100 100 98 91 83 68 65 66 42 57 88 100 92 81 73 79
86 100 92 83 96 83 62 58 57 57 65 71 69 70 64 69 73 90 83 80 79 71 67 51 47 64 76 81 85 83 77 77 86 88 77 78 62 49 80 76 77 85 75
98 91 94 95 89 62 54 59 63 50 54 63 72 61 67 71 79 98 96 87 98 90 79 53 43 42 50 62 84 86 77 83 86 81 83 69 64 73 66 54 67 80 94
100 100 96 91 95 100 100 99 94 94 87 79 78 73 74 94 100 91 83 96 91 84 69 57 54 46 50 51 58 58 59 66 85 66 68 89 86 63 54 65 64 83 88
100 100 100 100 100 100 100 100 100 100 100 100 100 99 76 74 91 92 91 89 83 68 61 52 49 50 56 59 63 56 55 52 54 63 81 90 75 59 72 77 72 84 89
97 100 100 100 100 100 100 100 100 100 100 100 100 95 99 100 90 86 75 62 50 50 48 57 62 58 63 67 78 85 75 65 59 58 69 81 85 66 65 74 79 78 79
76 89 97 94 100 100 100 100 100 100 100 100 100 100 100 100 100 81 57 50 50 56 55 56 59 64 65 64 62 64 66 70 63 60 76 69 70 74 76 87 71 82 80
41 74 73 56 52 92 100 100 100 100 100 100 100 100 100 100 100 76 54 51 54 55 56 62 67 66 67 73 72 68 68 77 81 84 80 69 79 79 77 86 89 78 94
23 37 59 47 43 47 54 71 79 98 99 100 100 100 100 90 73 61 52 49 51 51 49 58 64 74 72 74 81 78 82 75 98 95 84 96 98 90 92 84 99 100 93
22 22 30 37 39 38 41 44 45 48 54 65 75 88 79 70 61 55 49 50 50 53 48 54 58 69 75 81 81 84 82 90 84 85 79 85 97 100 100 100 97 83 87
24 25 24 26 30 32 32 34 40 38 38 40 41 49 58 54 60 51 47 62 58 53 56 59 60 64 80 81 83 92 99 100 81 98 98 87 86 98 100 100 100 100 97
19 22 22 24 26 28 29 32 35 38 39 38 40 44 43 44 45 46 47 52 52 55 54 75 61 70 87 74 83 90 82 94 91 96 98 100 100 100 87 93 100 100 100
14 19 22 24 25 25 25 27 28 31 33 37 38 42 41 44 45 47 48 47 46 45 50 57 59 76 90 100 100 100 87 100 79 100 100 100 100 100 92 96 100 100 91
12 14 14 14 17 18 19 20 21 24 27 27 31 37 40 40 43 44 42 40 42 43 46 41 48 59 83 97 100 100 100 100 90 100 100 99 100 99 100 90 97 100 100
9 10 10 12 12 13 14 14 15 16 18 22 24 27 31 32 34 36 32 33 35 39 53 54 66 71 85 100 100 100 100 100 100 100 100 100 90 92 79 85 94 100 100
7 8 8 8 9 10 12 12 14 15 16 16 16 17 20 23 25 28 26 30 33 36 39 42 57 86 94 100 100 100 100 100 100 100 100 100 94 94 95 100 100 100 100
6 7 7 8 9 9 10 11 11 12 14 15 18 20 20 21 22 24 29 31 33 35 39 39 57 85 100 100 100 100 100 100 100 100 100 98 87 100 100 100 100 100 100
5 6 6 6 6 6 6 8 10 11 12 15 18 20 22 23 25 28 36 40 38 46 47 55 70 87 94 97 92 100 100 100 100 100 100 100 100 100 100 100 100 95 99
3 4 4 4 4 4 4 4 5 7 7 10 15 22 30 39 41 44 47 44 46 53 68 72 73 69 72 87 98 95 100 100 100 100 100 100 100 100 100 96 98 100 100
4 3 2 2 2 2 2 3 3 4 4 7 12 21 28 33 35 39 47 51 48 52 57 61 69 68 72 91 100 100 95 92 100 100 95 100 100 96 99 96 100 100 100
5 4 3 2 2 2 2 2 2 3 3 4 5 7 9 15 24 30 31 33 36 42 48 53 51 50 48 55 70 59 55 74 81 76 70 97 94 96 100 96 100 100 100
12 9 8 4 3 3 2 2 2 2 2 3 4 6 8 10 13 19 19 19 22 27 29 31 39 41 35 29 29 30 36 52 71 75 70 85 98 100 100 100 100 100 97
29 21 17 13 8 7 4 4 4 4 3 4 4 6 8 9 11 14 17 23 24 22 28 31 27 25 31 36 43 51 67 73 84 95 98 96 100 99 100 100 100 100 100
46 50 59 55 36 24 15 12 10 8 9 9 9 12 15 18 20 20 22 22 22 22 21 23 29 38 54 75 100 85 87 93 88 85 79 70 70 64 62 77 85 86 86

GFSMA_250_rhum_150.txt.gz
RH
80 77 62 84 94 84 71 60 60 58 60 83 75 85 76 76 81 93 94 100 100 100 100 100 100 100 88 78 60 80 98 83 79 70 71 70 66 64 52 45 65 85 76
84 75 85 100 96 87 84 70 65 60 52 62 71 80 85 76 70 63 66 82 62 70 79 93 70 67 60 43 56 73 75 78 77 74 73 71 70 54 56 62 62 56 54
78 77 97 100 100 100 94 82 79 60 53 61 71 74 88 83 66 69 71 67 55 76 80 83 84 80 59 43 41 41 54 69 74 68 62 63 61 42 58 68 60 59 65
86 83 85 100 100 97 97 91 85 75 65 64 70 71 73 77 62 63 62 58 62 89 92 98 94 82 68 52 50 49 47 53 57 53 49 55 50 42 71 69 55 58 70
48 92 93 98 94 100 100 92 93 92 66 63 62 54 54 58 66 62 46 66 82 93 92 90 87 72 56 58 47 46 50 54 54 54 50 44 46 44 46 60 56 49 76
29 65 99 100 97 95 100 100 98 88 75 65 51 54 55 55 64 63 47 70 78 89 95 89 65 56 49 51 44 49 58 60 63 59 57 56 47 49 46 44 48 46 54
28 78 87 100 100 100 96 100 83 61 65 63 62 65 67 67 78 75 75 76 68 89 82 64 54 55 56 50 56 55 60 69 61 62 63 65 55 52 56 46 46 46 50
27 46 79 100 100 100 100 100 100 100 100 99 95 100 100 100 100 98 87 90 98 94 79 59 49 49 55 57 55 56 57 65 74 70 68 75 72 80 75 70 70 62 58
21 24 47 100 100 100 100 100 100 99 100 100 100 100 100 100 100 100 100 100 100 100 91 67 55 53 53 54 56 57 64 68 72 94 88 89 86 78 86 82 77 81 67
16 19 22 39 96 100 100 100 100 100 100 100 100 100 100 100 100 100 100 100 100 100 100 80 58 58 56 51 54 56 56 61 74 79 84 91 91 95 91 93 97 100 100
10 12 16 20 28 69 92 100 100 100 100 100 100 100 100 100 100 100 100 100 100 100 99 86 75 69 62 59 58 51 56 62 73 78 88 93 96 99 99 93 77 83 93
11 11 12 15 19 25 51 76 87 100 95 85 97 100 100 100 100 100 100 100 100 100 98 97 82 74 67 57 60 62 54 58 66 76 80 88 100 100 93 100 100 98 78
12 11 12 13 16 19 26 38 49 70 74 65 56 63 72 73 71 63 65 75 79 94 93 93 85 75 67 68 69 68 70 65 69 69 70 72 70 74 80 100 100 100 99
11 11 11 12 14 16 19 23 26 39 57 59 50 47 51 51 50 51 53 53 51 58 62 65 63 66 66 66 64 58 55 73 92 90 70 44 46 68 93 94 90 94 75
10 13 12 11 13 15 17 18 22 26 33 42 45 44 45 47 45 46 44 45 43 51 60 61 60 60 60 59 71 64 48 60 60 61 88 100 100 93 100 85 79 88 69
6 9 12 12 11 13 14 16 18 21 25 28 31 35 36 41 41 42 41 39 39 46 45 48 53 53 53 52 70 66 69 55 68 87 100 85 100 100 100 98 84 100 95
4 5 6 9 11 11 13 14 14 18 19 22 25 29 32 34 37 38 38 37 39 41 44 39 47 48 46 45 47 54 61 64 79 99 100 100 100 100 100 100 100 100 100
4 4 5 6 8 10 10 12 12 12 15 16 19 21 24 26 28 30 32 33 33 36 40 40 42 45 42 36 36 69 51 81 100 100 100 100 100 100 100 100 100 100 100
3 4 4 5 6 7 9 11 12 13 14 14 16 17 19 21 21 22 23 24 27 31 33 34 44 86 42 51 47 66 60 77 100 100 99 100 100 100 100 100 100 100 100
4 5 5 5 5 5 6 8 9 11 12 13 15 16 18 19 21 23 24 24 26 29 33 36 56 100 48 74 64 54 64 88 98 95 74 94 100 100 100 100 98 97 100
5 4 4 4 4 4 4 5 6 7 8 8 10 14 17 20 22 25 27 30 32 34 34 38 59 68 75 85 85 81 88 88 74 94 93 90 99 98 100 100 93 79 75
8 8 7 5 4 3 3 3 3 3 3 4 6 7 13 17 20 24 34 41 48 50 54 59 64 68 82 78 72 73 69 98 83 71 64 76 70 70 58 53 53 46 59
9 8 7 8 8 6 5 4 3 3 3 3 3 4 4 6 9 14 26 44 52 59 61 61 66 74 81 78 69 73 69 75 65 53 45 40 45 48 45 46 62 77 90
33 28 20 14 11 10 8 5 4 3 3 3 3 3 3 4 5 6 8 11 16 21 29 40 51 56 65 65 54 51 42 32 28 29 31 41 37 41 78 81 69 72 86
44 38 36 32 23 16 17 13 10 7 5 4 4 3 3 4 4 5 6 8 10 16 22 24 29 32 35 35 35 35 28 31 31 32 38 46 59 76 93 100 100 96 92
41 42 40 39 42 34 26 29 34 30 16 11 11 10 7 6 6 7 8 12 15 21 25 27 30 32 34 33 29 30 31 29 39 54 65 77 86 86 98 100 100 97 100

GFSMA_250_rhum_153.txt.gz
RH
95 46 42 44 43 47 66 60 40 38 56 58 59 66 68 85 89 76 84 84 88 83 99 100 99 98 80 62 58 49 38 38 49 57 62 64 59 47 49 45 53 64 58
92 93 58 54 58 56 76 70 63 73 62 58 56 61 59 47 66 72 82 66 63 76 69 61 57 74 72 73 73 64 50 47 41 42 51 48 45 46 44 44 49 58 60
48 70 78 81 83 70 82 89 81 91 75 71 55 55 53 51 55 70 70 68 70 69 65 65 64 63 69 73 68 52 51 42 42 41 46 48 46 46 40 40 42 43 47
23 30 66 77 93 92 100 100 100 99 89 76 76 61 52 60 66 60 65 68 61 66 65 62 67 78 85 79 46 47 44 42 42 48 48 45 44 42 41 44 45 44 41
21 21 23 51 69 93 100 100 100 100 100 99 99 80 69 66 67 62 56 59 51 56 52 55 61 75 86 66 51 42 45 45 47 46 46 43 49 47 46 50 47 48 44
18 22 21 21 44 76 86 100 100 100 100 100 100 100 87 66 63 62 50 55 56 64 52 56 67 84 83 62 50 42 44 50 50 50 61 56 54 58 58 58 56 61 55
16 18 23 21 22 45 66 80 100 100 100 100 100 100 99 82 74 61 52 52 65 61 71 64 64 82 80 65 51 48 47 48 48 54 54 66 68 79 70 78 83 87 78
16 15 18 22 20 24 53 65 74 99 100 100 100 99 99 83 74 60 56 59 62 59 66 82 71 93 85 78 62 56 53 52 49 56 56 60 63 69 80 92 91 87 90
18 16 15 18 22 23 31 71 80 97 97 93 99 97 80 80 69 70 62 64 78 92 99 90 92 99 100 93 81 68 58 61 61 63 60 61 61 73 69 71 84 96 100
13 17 17 14 17 22 26 34 81 80 100 100 100 100 100 100 100 100 100 100 93 89 87 97 100 100 100 100 98 93 80 77 66 62 60 64 62 62 71 66 64 85 84
7 10 15 17 14 16 20 27 51 81 98 100 100 100 95 94 100 100 100 100 99 100 100 100 100 100 100 100 100 100 94 84 81 69 69 66 74 72 64 65 74 91 89
5 6 9 14 17 13 17 19 23 30 64 97 100 100 100 100 95 99 100 95 100 100 100 100 100 100 100 97 99 100 92 87 82 73 74 69 64 62 54 56 56 62 83
5 5 6 7 14 19 14 16 18 21 24 44 80 100 100 100 100 100 100 100 100 100 100 100 100 99 85 81 76 79 81 81 72 72 69 65 64 59 55 54 51 50 46
5 5 4 5 7 12 17 14 14 17 19 22 26 40 64 80 97 100 100 100 92 98 99 90 83 67 60 64 60 65 68 66 60 68 72 64 62 64 66 68 58 42 54
3 3 3 3 4 6 11 15 14 14 14 16 20 24 24 32 50 61 73 84 81 77 65 62 59 55 54 54 57 60 60 64 62 64 61 56 59 62 63 66 66 65 100
4 4 4 4 3 4 5 9 14 14 14 16 16 17 21 26 32 39 38 42 54 62 57 56 61 59 56 52 56 60 60 61 64 66 64 55 56 60 69 59 87 99 83
2 3 4 4 4 4 4 4 6 10 12 12 15 17 17 18 21 25 31 35 42 48 48 52 52 54 51 52 56 57 53 61 72 74 87 73 78 98 100 97 95 100 100
2 3 3 3 4 4 5 5 5 6 9 12 15 14 16 18 19 21 23 27 34 38 44 52 56 57 59 60 56 54 66 71 69 80 80 90 76 82 77 100 94 95 100
3 3 3 4 4 5 5 6 5 6 6 8 12 14 17 17 20 21 22 26 28 33 38 45 50 50 53 57 54 58 62 75 76 98 73 100 75 76 100 90 96 79 97
5 4 3 4 4 4 5 5 6 6 6 6 6 7 10 14 16 19 22 23 25 27 30 34 37 42 44 46 47 50 55 66 88 100 100 99 91 100 68 93 96 92 88
11 10 7 5 5 5 5 5 5 5 6 6 7 7 6 7 9 13 16 21 23 24 26 29 31 33 37 40 46 48 52 68 87 73 96 95 89 89 84 90 93 98 100
17 16 14 11 9 8 7 5 5 5 4 4 4 4 4 5 5 6 10 18 26 35 34 34 37 37 39 42 44 48 65 89 84 97 91 100 90 100 100 98 100 99 100
40 33 23 17 18 15 14 12 10 8 7 6 5 4 4 4 4 4 6 9 15 27 37 47 54 55 56 58 56 56 69 68 97 99 94 96 89 100 100 99 94 82 54
56 48 40 32 28 27 26 23 19 16 12 9 7 5 4 4 3 3 4 4 6 8 13 20 31 44 53 59 68 76 76 80 85 86 91 93 94 92 80 65 55 47 37
48 46 42 34 30 27 26 23 24 20 19 19 19 15 9 6 5 4 4 4 4 4 6 7 10 13 16 19 20 24 29 35 38 40 43 44 50 53 50 46 41 42 47
44 41 37 34 32 30 28 27 26 23 22 21 22 20 20 21 17 12 6 4 5 5 6 6 7 9 12 16 19 22 28 33 38 40 41 42 55 65 83 86 79 82 89

GFSMA_250_rhum_156.txt.gz
RH
74 73 91 99 100 77 50 39 33 43 49 57 58 30 45 68 66 67 77 81 77 82 80 80 75 80 82 76 76 62 62 65 44 36 37 41 43 44 38 38 41 36 38
27 35 66 68 67 78 71 61 48 51 58 64 53 48 54 58 60 58 60 56 52 71 67 68 74 65 50 54 56 50 52 50 50 40 37 44 47 40 39 36 39 41 43
17 24 27 47 54 57 59 66 72 68 84 89 79 70 69 61 58 56 50 50 51 64 63 70 65 63 62 56 54 67 54 43 35 34 34 38 41 40 41 47 46 47 48
15 20 23 26 27 29 40 55 78 82 91 100 100 86 89 83 57 61 55 51 54 64 62 61 63 64 63 61 52 68 65 52 39 37 35 34 33 32 36 44 49 49 48
24 18 18 23 24 28 26 38 65 85 86 93 100 92 90 91 74 74 68 64 62 58 62 64 59 56 60 58 60 65 73 56 44 41 42 41 36 39 40 47 51 55 59
22 21 20 20 21 23 27 28 46 63 83 99 100 100 78 85 94 83 78 85 74 69 62 58 56 67 66 60 57 78 80 69 50 50 48 46 45 47 52 55 53 61 63
13 14 19 20 20 23 22 25 28 45 85 80 82 96 100 94 85 100 92 89 75 72 71 67 57 54 55 56 55 76 86 76 67 59 60 61 61 59 62 62 59 61 67
11 9 10 14 18 19 22 22 25 29 50 90 91 94 100 100 100 90 94 88 88 90 77 67 60 51 65 57 47 64 88 88 79 73 67 73 76 70 62 61 66 70 70
10 9 9 8 11 15 20 22 22 26 28 40 65 74 92 100 100 100 95 88 90 87 79 66 62 62 57 57 82 84 99 94 90 93 98 98 94 83 72 64 69 70 69
8 9 9 8 8 8 13 21 21 22 26 28 33 58 74 78 93 100 100 91 90 78 66 63 55 56 73 98 100 100 100 100 100 100 100 100 95 84 83 81 74 68 66
6 6 7 8 8 8 8 14 20 20 21 24 25 38 45 63 100 93 97 88 86 81 83 87 91 88 99 100 99 100 100 100 100 100 100 100 100 92 80 77 74 72 73
6 6 6 6 7 7 7 8 12 19 21 23 24 26 38 48 70 86 97 94 89 97 96 100 100 100 95 83 100 98 100 100 100 100 97 78 84 80 70 75 74 68 69
4 4 5 5 6 6 7 7 8 11 18 23 24 24 27 36 53 76 92 99 100 100 96 100 100 100 100 100 77 84 100 100 100 100 84 73 74 81 80 72 71 69 70
3 3 4 4 4 5 6 6 7 8 9 17 22 24 22 24 28 39 91 100 100 100 100 100 100 100 100 100 99 95 100 100 100 100 82 77 75 71 66 70 67 68 79
2 3 3 3 4 4 4 4 5 6 6 7 11 17 19 20 21 23 25 27 45 91 100 100 100 100 100 100 100 100 100 100 89 74 69 66 63 60 60 54 69 76 71
2 3 3 3 4 4 4 4 4 4 5 7 7 9 14 18 20 19 20 22 20 20 22 52 91 96 93 96 100 96 87 86 80 79 72 71 68 70 74 65 59 77 72
2 2 2 3 3 4 4 5 5 6 6 6 6 7 9 14 17 17 18 17 18 19 18 25 25 36 46 57 74 73 68 67 68 69 62 68 73 71 74 81 91 85 100
3 3 3 3 3 4 4 5 5 5 5 5 6 7 7 8 12 16 19 20 19 19 20 24 28 27 31 42 46 53 61 71 76 78 68 75 76 83 80 77 100 100 96
9 7 5 3 3 3 3 3 4 4 4 5 5 6 6 7 8 11 14 19 24 26 24 24 30 32 35 43 49 53 64 68 70 73 74 77 76 82 94 78 100 93 99
19 14 12 10 9 8 6 4 4 4 4 4 5 5 6 6 7 7 8 9 12 15 23 28 32 35 36 40 46 54 63 66 68 72 73 77 82 88 99 96 100 100 97
46 48 42 30 20 14 11 9 8 8 6 6 5 5 6 6 6 6 6 6 6 7 9 12 16 24 32 39 41 42 47 55 57 61 65 68 68 88 100 100 100 100 100
71 63 59 56 54 46 40 30 23 16 13 10 8 8 7 7 6 6 5 5 5 6 6 7 8 10 17 32 39 42 46 49 47 52 61 68 54 57 94 93 99 78 91
56 56 56 53 50 46 41 40 43 36 34 27 20 17 14 12 10 8 7 6 5 5 5 6 7 9 10 12 16 33 57 60 52 51 59 59 61 83 70 62 88 100 100
55 53 50 47 44 40 36 32 30 28 28 27 26 23 21 21 20 19 15 10 7 5 4 4 4 5 7 10 13 15 16 25 47 65 72 80 86 89 86 90 90 91 88
47 42 39 38 37 36 35 35 33 31 29 27 25 24 21 19 16 15 16 15 15 13 7 5 4 4 5 6 8 11 14 19 22 27 32 39 48 52 50 49 50 49 50
46 45 43 40 37 34 32 31 28 27 26 26 25 23 22 21 21 21 20 19 21 18 20 19 9 5 5 5 6 7 9 11 15 18 20 22 21 24 28 32 34 38 41

GFSMA_250_rhum_159.txt.gz
RH
25 28 28 34 59 74 86 85 64 47 62 47 36 35 38 42 52 42 42 77 70 70 86 82 70 71 81 71 70 74 72 59 46 35 35 36 34 35 37 39 41 40 42
17 22 29 31 29 33 44 55 76 74 56 49 43 43 33 50 57 50 64 63 60 61 59 68 61 70 70 76 56 53 54 51 41 38 31 35 32 33 35 35 40 41 42
23 20 22 26 29 30 26 34 52 70 68 53 38 42 46 43 67 64 66 60 58 57 48 45 56 59 64 60 60 62 57 62 57 50 37 35 36 36 32 38 38 41 45
17 17 17 16 17 23 34 35 31 30 57 66 54 47 51 32 41 61 70 71 66 53 52 52 62 59 61 63 63 65 64 59 54 62 54 42 41 43 43 43 42 43 47
15 15 15 15 16 16 18 25 39 45 35 35 70 84 65 49 32 53 62 69 82 63 62 68 65 63 60 61 59 60 64 63 57 67 73 60 51 49 48 52 54 52 50
16 15 14 14 13 15 20 17 19 31 41 40 36 87 91 72 77 100 88 58 63 86 65 80 91 71 62 63 58 62 77 77 70 81 82 74 65 57 57 58 62 62 58
20 17 16 17 15 12 13 15 16 17 26 39 38 45 98 89 100 100 100 100 62 80 84 77 78 76 74 70 61 65 62 71 78 95 76 82 78 71 64 65 68 77 70
17 16 16 15 14 13 12 12 12 16 16 22 33 33 46 100 96 100 100 100 97 58 89 81 88 81 74 80 70 67 68 86 86 86 87 89 96 90 86 84 80 81 79
11 10 11 12 12 10 10 10 10 11 14 15 18 31 32 62 100 67 84 99 96 60 56 66 78 79 86 93 86 80 85 74 68 85 85 100 100 100 100 100 100 90 76
8 9 9 10 10 10 9 10 10 9 8 11 13 17 30 31 61 100 87 89 78 62 52 49 73 92 94 99 93 80 86 92 84 76 99 100 100 100 100 100 100 100 89
5 5 6 6 6 6 8 8 9 9 8 8 9 12 16 28 30 39 96 100 93 77 65 62 64 74 83 93 85 74 86 81 87 93 100 100 100 100 100 100 100 99 83
4 4 4 4 4 5 5 6 7 8 8 9 9 9 12 17 27 27 29 57 77 82 85 92 87 89 90 85 81 74 83 98 94 72 78 88 100 100 100 100 100 97 84
3 3 3 4 4 4 4 6 6 6 7 7 8 9 9 12 19 27 26 29 36 64 65 77 100 100 97 96 100 91 78 100 100 100 100 79 79 99 100 100 100 100 91
2 2 2 2 3 4 4 5 5 5 6 5 6 7 8 10 11 18 24 26 27 33 58 74 82 90 93 100 100 100 94 94 93 88 100 99 91 100 100 100 100 100 95
3 2 2 2 2 3 3 4 4 4 4 5 5 5 6 7 9 10 16 20 23 30 33 47 76 74 72 100 100 100 100 100 100 100 100 100 100 97 100 100 100 100 96
5 4 3 2 2 2 3 3 4 4 5 5 5 5 6 6 7 8 9 11 18 22 30 38 36 53 77 71 100 100 100 100 100 100 100 100 100 100 100 100 100 98 91
7 6 5 4 3 2 3 3 3 4 4 5 6 7 6 7 7 8 8 9 10 13 17 46 40 37 35 47 50 52 83 100 100 100 100 100 100 100 100 100 100 92 86
15 10 7 5 4 3 3 3 4 4 4 5 5 6 6 7 7 8 9 10 11 12 11 17 30 43 41 35 32 30 31 32 34 45 54 60 74 90 94 100 99 94 86
48 38 23 13 9 6 4 4 4 4 5 5 6 6 6 6 6 7 7 8 8 9 9 9 11 16 29 42 44 39 36 33 32 35 35 36 47 59 74 90 87 98 93
73 67 59 52 42 28 17 12 9 8 6 4 4 4 4 5 5 5 6 6 6 6 6 6 7 9 10 13 16 20 24 33 39 42 44 47 49 52 64 76 80 88 96
69 71 73 70 65 61 54 44 34 28 20 15 12 10 8 7 6 5 5 5 5 6 5 5 5 6 7 8 8 10 12 21 25 35 47 56 63 65 72 78 87 93 97
58 56 56 57 58 57 55 52 48 48 50 46 37 29 25 22 17 15 14 12 10 9 8 7 6 5 5 6 7 8 9 11 12 29 43 72 89 78 75 92 88 85 79
52 51 49 48 49 48 48 47 47 44 41 40 39 38 40 42 41 37 33 30 25 20 18 15 12 9 8 6 6 6 6 7 10 13 17 19 27 57 69 90 96 99 91
47 46 45 43 41 40 40 39 38 37 36 35 35 34 34 33 32 30 28 27 26 24 21 17 16 14 11 8 7 6 5 6 6 8 12 16 18 19 22 29 38 42 46
45 42 39 38 38 36 33 30 28 27 26 26 26 27 27 27 27 27 27 25 22 18 18 19 17 15 12 10 9 8 6 5 4 5 8 11 14 18 19 20 18 20 22
57 52 44 34 30 25 23 22 22 20 18 17 17 16 16 15 15 16 16 15 15 15 15 13 12 13 14 15 16 14 13 9 5 5 5 6 8 11 14 16 18 21 20